GFSWCAN_925_thetae_000.txt.gz
Theta_e
290 291 291 292 294 294 294 294 294 293 293 294 294 294 294 294 294 294 294 294 294 295 294 294 294 293 293 294 296 294 292 294 297 298 298 300 305 305 305 306 310 312 312 313 313 314 314 308 309 312 309 309 307 306
292 292 291 291 293 293 293 293 293 293 293 293 293 294 294 293 293 294 293 294 293 294 294 293 293 294 294 294 293 290 292 288 293 294 295 297 296 296 298 300 301 303 300 299 301 305 304 304 300 298 304 301 301 302
291 291 291 291 291 292 292 292 292 292 292 292 293 293 293 293 293 293 293 293 293 293 293 292 292 292 292 292 293 292 290 292 291 291 292 292 294 295 292 292 292 293 295 297 296 302 296 293 296 299 297 295 295 295
290 291 291 290 290 291 291 291 291 292 292 292 292 293 293 293 293 293 292 292 292 293 293 291 292 293 292 293 292 292 292 291 291 291 290 288 285 291 290 292 292 290 290 290 290 291 293 294 295 294 293 292 292 293
290 290 290 290 290 290 291 291 291 291 291 292 292 292 292 292 292 293 292 292 292 293 293 292 289 290 291 291 292 291 291 291 290 291 290 289 288 289 289 290 289 289 290 290 290 291 291 291 291 291 287 286 287 290
289 289 290 290 290 290 291 291 291 291 291 292 292 292 291 291 292 292 292 291 292 292 292 292 292 289 291 290 290 290 290 290 291 290 290 290 291 290 287 287 289 289 290 290 289 283 284 287 287 285 282 283 284 282
289 289 289 289 290 290 290 290 290 291 291 291 291 291 291 291 291 291 292 291 292 292 292 291 291 288 291 290 288 290 290 290 290 291 290 290 290 290 290 289 289 289 286 282 281 279 282 282 280 279 280 279 279 278
289 289 289 289 289 290 290 290 291 291 291 291 291 291 290 291 291 291 292 292 290 291 291 290 290 289 288 287 287 289 289 290 291 290 288 289 289 289 288 288 287 279 278 279 277 277 277 277 278 277 277 276 275 275
288 288 288 289 289 289 290 290 291 291 290 290 290 290 290 290 291 291 291 292 291 290 291 291 285 283 287 287 288 289 288 288 289 289 289 285 286 286 287 287 280 276 275 275 275 274 275 274 273 273 273 272 272 272
288 288 288 288 288 289 289 290 290 290 290 290 290 290 290 290 291 290 290 290 291 290 291 290 290 290 287 287 287 288 288 288 283 284 287 285 286 287 278 276 275 274 273 272 271 271 270 269 270 270 270 270 270 270
287 287 287 287 288 288 289 290 290 290 289 289 288 290 290 290 289 289 289 289 288 286 287 282 286 287 287 287 287 289 287 286 286 281 281 278 278 285 275 272 271 271 270 269 268 268 268 269 268 268 268 268 267 267
286 287 287 287 287 288 288 290 290 289 289 289 289 289 289 289 287 287 287 286 286 283 282 282 283 284 284 286 285 287 286 285 284 278 279 278 284 272 268 267 267 267 265 264 265 265 266 266 266 266 266 265 265 265
286 286 286 287 287 288 289 289 289 289 289 288 289 289 289 289 289 289 288 285 279 279 278 278 280 283 284 286 288 287 287 286 278 280 279 280 271 267 264 264 264 263 263 262 262 263 263 263 264 264 264 264 264 265
285 286 286 287 288 289 289 289 289 289 288 288 289 289 287 287 285 280 279 278 277 280 278 280 281 285 282 286 287 286 285 283 283 282 279 269 264 260 262 262 261 261 260 261 261 261 262 263 263 263 263 263 264 264
286 286 287 287 288 288 289 289 288 288 288 288 287 286 287 285 279 274 274 273 273 274 277 277 276 283 281 284 286 284 284 284 283 279 266 264 263 262 261 261 260 260 260 260 261 261 262 262 263 263 263 263 264 265
286 286 287 287 288 289 288 287 287 287 286 286 284 283 273 277 277 273 271 270 270 274 275 277 280 284 282 282 283 280 279 279 276 260 260 262 261 260 260 259 259 259 260 261 261 261 262 262 263 263 263 264 265 264
286 286 287 287 288 288 287 285 285 284 283 282 275 268 269 267 266 265 265 268 269 271 277 280 284 284 282 285 283 268 271 261 260 260 260 258 259 259 259 259 259 260 261 260 261 262 262 263 263 263 262 263 264 264
285 285 287 286 285 285 285 285 284 284 282 273 274 265 263 264 264 262 263 266 268 271 272 275 273 278 282 281 272 259 259 259 260 259 259 259 259 259 259 259 260 261 261 261 261 262 262 262 262 262 262 262 263 263
284 283 284 285 284 284 282 281 280 280 270 267 267 266 264 262 263 263 262 265 266 266 268 270 273 272 262 259 257 256 256 256 258 259 259 259 259 258 259 260 261 261 261 261 262 262 262 262 261 261 261 262 262 262
283 284 283 284 284 281 277 277 278 273 269 269 266 265 265 264 262 260 260 265 267 267 266 265 259 257 257 256 256 257 258 259 259 258 258 259 259 260 260 261 261 260 261 262 262 263 262 262 261 261 261 260 261 261
278 278 280 281 276 273 271 273 273 271 269 267 266 267 265 264 260 260 261 264 265 263 261 254 253 254 253 254 258 257 258 259 258 258 258 259 260 260 261 260 259 259 260 262 262 262 262 262 262 261 261 261 260 260
275 275 276 275 275 271 270 268 271 272 269 265 266 265 261 259 258 258 262 261 261 256 254 254 253 253 253 254 256 259 259 259 258 259 259 259 259 260 261 259 259 258 259 261 261 261 262 262 262 261 261 261 261 261
273 271 268 268 268 267 266 268 268 268 268 266 264 264 261 258 260 262 262 256 254 256 255 253 256 259 258 260 260 259 259 259 259 258 257 257 259 261 260 259 258 257 258 259 261 261 261 261 261 261 261 261 261 261
268 263 263 263 264 264 264 265 267 267 266 266 265 262 260 259 263 262 258 254 255 257 257 257 257 259 259 259 259 259 258 258 259 258 256 257 258 259 260 260 258 256 256 258 259 259 259 259 259 259 259 259 259 260
264 256 260 260 261 262 262 261 261 265 264 264 264 263 261 260 262 259 260 256 257 257 258 257 258 259 259 259 260 260 259 258 258 258 256 256 256 258 258 258 258 256 255 255 257 257 257 257 257 256 256 257 257 257
257 255 255 258 259 258 260 258 258 260 263 262 260 260 260 262 261 260 258 257 257 258 257 257 257 259 259 258 258 258 257 257 257 259 257 256 255 255 256 256 256 257 255 255 255 255 256 256 256 256 255 255 256 256
256 254 254 254 257 259 258 257 257 260 260 260 257 259 262 262 259 258 256 258 258 259 259 259 258 259 259 258 258 257 257 257 256 258 258 257 256 256 255 254 253 254 254 255 256 256 256 256 256 256 255 256 255 255
254 252 255 252 251 250 251 254 255 254 255 255 254 258 261 260 258 257 259 259 259 259 259 259 258 258 258 258 257 257 257 258 258 258 258 257 258 257 257 256 256 256 256 256 256 256 257 256 256 256 256 255 256 256
252 250 252 254 252 253 252 252 251 251 251 249 253 256 256 255 254 254 258 258 258 258 259 259 259 258 258 258 258 258 257 257 257 255 255 255 254 258 257 257 257 256 256 256 257 257 256 256 256 256 255 255 255 255
252 248 254 252 254 254 251 248 249 247 248 248 247 251 253 252 257 258 258 258 257 257 258 259 259 258 257 256 256 257 259 258 257 257 252 252 255 258 258 258 259 258 258 258 257 257 257 256 256 255 255 255 254 254
246 245 250 251 252 248 246 242 242 244 244 244 242 246 248 247 252 257 257 258 259 258 258 257 258 258 257 256 253 248 252 260 259 258 258 258 258 259 259 259 259 258 258 257 257 256 256 255 255 254 254 254 254 254
245 246 250 255 252 245 242 243 244 245 245 245 247 242 245 247 251 251 259 257 257 255 257 257 257 258 261 261 260 259 260 259 259 259 258 258 258 259 259 259 259 259 258 258 257 257 256 255 255 254 254 254 254 254
243 242 242 246 249 250 244 245 247 248 246 246 246 243 243 246 253 253 258 258 259 259 259 260 261 261 260 260 260 260 260 260 260 260 260 260 260 260 260 260 260 259 259 258 258 257 257 256 255 255 255 255 255 255

GFSWCAN_925_thetae_003.txt.gz
Theta_e
292 293 292 292 293 292 292 294 295 295 295 294 294 294 294 294 295 294 294 294 294 294 293 292 293 292 293 289 286 285 287 286 288 290 287 294 293 295 294 294 295 299 301 300 304 307 309 301 302 297 295 298 297 295
293 292 292 292 293 293 292 293 294 294 295 294 294 294 294 294 294 294 293 293 293 293 293 293 293 293 293 292 289 285 288 282 288 286 281 282 285 287 288 289 292 294 296 295 296 297 293 295 293 292 297 294 293 293
292 292 292 292 292 292 292 293 293 293 294 294 294 294 293 293 294 294 293 293 293 293 292 292 291 292 293 293 293 291 284 291 291 289 283 283 281 289 284 283 288 288 289 290 290 290 290 290 291 293 291 291 290 289
291 291 291 291 291 291 292 292 292 292 292 293 293 293 293 293 293 294 293 293 293 292 292 289 292 291 292 292 292 292 292 291 290 289 287 283 282 289 285 288 288 289 290 287 288 288 288 289 290 288 288 285 284 284
292 291 291 291 291 291 291 291 291 292 292 292 292 292 293 293 293 293 293 292 292 292 289 291 290 291 292 292 292 292 291 291 290 290 286 284 287 288 288 289 289 289 289 289 288 288 287 288 286 286 282 281 280 281
291 291 291 291 290 290 291 291 291 292 292 292 292 292 292 293 293 292 289 291 291 292 292 292 289 286 291 291 290 291 291 291 290 291 290 290 290 289 287 280 288 288 288 289 288 282 282 283 285 283 280 279 279 278
291 291 291 291 290 290 290 291 291 291 292 292 292 292 292 293 292 291 289 291 291 292 292 291 286 284 289 287 284 288 288 289 289 290 290 290 290 290 290 290 289 289 288 283 281 279 284 281 281 279 278 278 276 275
291 290 290 290 290 290 290 290 290 291 291 291 291 292 292 292 292 291 291 291 291 291 291 291 289 289 287 285 286 287 289 289 291 291 288 290 289 290 290 289 289 288 280 280 279 277 277 277 277 277 275 274 273 273
290 289 289 290 290 289 289 290 290 290 291 291 292 291 291 290 289 290 290 290 290 290 291 290 284 281 285 286 286 284 288 287 289 290 290 285 288 287 286 287 287 279 278 276 274 273 273 274 272 272 272 271 270 271
290 289 289 289 289 289 289 289 290 290 290 291 291 290 286 289 289 290 291 291 291 291 290 289 277 283 286 284 284 287 288 288 288 283 286 287 288 288 285 276 274 273 272 271 269 270 268 268 269 269 269 269 269 269
289 289 288 288 289 289 289 289 289 289 290 290 289 289 289 290 290 289 290 290 289 286 287 280 287 287 286 284 286 288 288 287 288 282 280 271 274 284 273 270 269 269 269 268 267 266 266 266 266 266 267 266 266 266
288 288 288 288 288 288 288 288 288 289 290 288 288 288 289 290 289 288 289 287 287 283 275 279 280 283 281 285 285 287 287 284 287 272 277 276 283 268 265 265 265 265 263 263 263 264 264 264 265 264 263 264 264 264
286 287 287 287 287 287 288 288 288 289 289 288 288 286 288 288 288 286 286 283 274 273 273 275 279 282 280 285 286 285 287 286 275 278 279 277 269 265 262 263 263 262 262 262 262 262 261 261 261 262 263 263 263 263
286 286 286 286 287 287 287 288 288 289 288 288 288 288 286 285 288 285 283 277 276 273 274 275 274 281 275 285 287 287 287 282 284 283 279 263 262 260 260 262 261 261 260 260 259 259 260 261 261 261 262 262 262 263
285 286 286 286 287 287 288 288 289 289 288 288 287 286 286 283 274 270 270 271 272 273 278 278 275 284 275 282 285 282 281 281 280 278 263 262 261 261 262 261 260 259 259 259 259 259 260 260 260 261 262 263 263 263
285 285 286 287 287 288 288 289 288 286 286 286 283 282 269 276 273 272 270 269 270 272 273 273 278 283 280 280 282 281 278 278 274 257 257 261 261 260 259 258 258 258 258 258 258 259 260 260 261 262 262 263 263 263
285 285 286 287 288 288 288 285 285 284 284 282 268 262 264 265 266 262 262 267 269 268 272 275 280 280 280 280 277 266 271 260 257 259 256 257 257 258 257 257 257 257 258 259 259 259 260 261 262 262 262 262 262 262
285 285 285 287 287 286 285 285 281 281 275 271 272 262 262 261 260 258 258 265 266 267 266 272 272 275 277 277 271 257 258 257 257 254 257 257 255 256 256 256 257 258 259 259 259 260 262 262 262 262 261 261 262 262
284 285 286 286 285 284 282 279 278 271 266 263 266 265 261 260 262 262 258 263 263 265 267 266 270 270 263 257 254 251 249 250 255 257 258 256 256 255 256 257 259 259 259 259 261 262 262 262 262 261 261 261 261 261
282 283 283 283 283 279 276 276 272 268 265 267 263 262 262 261 258 254 254 262 266 265 265 264 258 255 256 254 253 254 255 256 256 256 256 257 258 258 259 260 259 259 259 260 262 262 262 262 262 261 261 261 261 261
280 279 280 281 275 271 268 270 269 266 266 264 262 263 263 259 254 254 255 262 263 262 260 255 257 255 253 253 255 254 254 256 255 254 256 257 259 259 260 259 259 259 259 260 261 262 262 262 262 261 261 261 261 260
275 276 276 275 272 267 267 267 269 267 264 261 262 260 255 255 255 254 258 257 259 254 254 256 256 253 249 249 251 257 258 258 257 258 258 258 258 259 260 259 258 258 258 259 260 260 260 260 261 261 261 261 261 261
274 272 269 267 269 267 264 265 264 265 263 262 259 259 258 256 256 259 259 252 252 253 251 251 253 256 252 258 259 259 258 258 257 257 257 257 258 259 260 258 257 256 257 258 258 259 259 259 259 259 260 260 260 261
268 262 262 261 262 261 260 260 263 262 263 263 262 261 260 258 259 259 257 249 251 251 252 254 255 257 258 258 257 257 258 258 258 257 256 256 258 258 258 258 257 255 255 256 257 257 257 257 257 257 257 258 258 258
265 256 258 257 258 259 258 257 259 262 261 262 262 261 260 256 260 258 258 253 251 252 255 256 257 258 257 258 259 259 258 258 258 258 257 256 256 257 257 257 257 255 254 254 255 256 256 256 256 255 255 255 255 256
255 253 254 255 257 256 258 257 257 258 259 260 259 257 255 260 260 261 257 253 254 256 256 256 257 257 258 258 258 259 258 257 257 258 258 257 256 255 256 256 256 257 255 254 254 254 255 255 255 255 255 254 255 255
255 253 252 251 255 258 256 256 256 258 258 258 255 259 260 262 260 258 255 257 257 258 259 259 259 258 259 258 258 258 258 257 257 257 257 257 257 257 256 254 254 256 256 255 255 255 255 255 255 255 255 255 255 254
252 250 255 252 251 249 252 252 254 255 255 254 253 256 261 261 259 256 258 259 259 259 259 259 259 259 259 259 259 258 258 257 258 258 258 257 257 257 257 257 256 256 256 256 256 256 256 256 256 256 255 255 255 255
250 247 250 251 250 250 250 251 250 248 249 247 252 256 255 253 253 253 258 259 259 259 258 258 259 259 259 259 259 258 258 257 257 256 255 255 254 259 259 258 258 258 258 258 258 257 256 257 256 256 256 256 256 256
251 245 253 251 253 254 250 246 246 242 243 246 245 251 252 252 256 258 258 258 257 257 259 259 260 259 258 257 257 258 260 259 258 257 253 253 256 259 258 259 259 259 258 258 258 258 258 258 257 257 256 256 256 256
243 243 249 248 251 246 243 239 239 241 241 242 239 246 248 247 251 256 257 258 258 258 258 257 258 258 258 257 254 249 253 261 260 259 259 259 258 259 259 259 259 259 258 258 258 257 257 256 256 255 254 254 255 254
242 246 249 255 251 243 240 241 241 244 242 244 245 239 244 246 250 250 258 257 256 255 257 257 256 257 261 261 261 260 260 260 260 260 259 259 259 260 260 260 260 260 259 258 258 257 256 255 254 254 254 254 254 254
241 239 240 245 248 249 243 244 245 247 244 245 245 241 240 246 253 252 258 258 260 260 260 261 261 261 261 260 260 261 261 261 260 260 260 260 260 261 261 261 261 260 259 258 257 257 256 256 255 255 255 255 255 255

GFSWCAN_925_thetae_006.txt.gz
Theta_e
294 293 293 293 293 293 293 293 293 293 293 295 296 295 295 295 295 294 294 294 294 294 292 291 292 291 292 288 286 284 286 284 287 289 282 292 289 293 290 291 289 289 291 291 292 291 295 291 291 290 290 293 295 293
293 293 293 294 293 293 293 293 293 293 293 294 295 295 295 295 294 294 294 294 294 292 290 292 292 292 292 292 290 283 287 280 288 284 280 280 281 280 282 281 287 287 289 287 291 291 291 291 290 290 294 291 290 289
293 293 293 293 293 293 292 293 293 293 293 294 294 294 295 294 294 294 294 294 293 293 293 291 291 291 292 292 292 292 285 291 290 288 283 287 285 285 280 281 285 287 288 287 287 288 288 288 288 289 289 288 286 286
293 293 293 293 292 292 292 292 292 292 292 292 293 293 294 294 294 294 293 293 293 292 292 289 290 291 291 291 292 292 292 290 290 289 291 289 283 288 285 288 287 286 288 287 288 289 288 288 287 286 286 284 283 282
292 292 292 292 292 292 292 291 291 292 292 292 292 292 293 293 293 293 293 293 293 293 292 287 287 291 291 292 291 291 291 291 292 292 292 290 285 286 283 288 288 288 288 288 288 288 288 288 288 285 283 282 281 280
292 292 292 292 292 292 292 292 291 291 291 292 292 293 293 293 293 292 292 292 292 292 292 286 287 285 290 290 290 290 290 290 291 292 292 289 289 289 289 287 288 288 288 288 288 288 286 285 284 283 280 279 279 278
292 292 292 292 292 292 292 291 291 291 291 291 292 292 292 292 292 292 292 290 291 291 292 291 286 283 288 287 285 288 289 291 291 292 292 291 290 290 290 290 289 288 288 288 285 281 283 283 282 278 278 277 275 274
292 291 291 291 291 291 291 291 291 290 291 291 291 292 292 292 292 292 292 291 291 291 291 289 289 285 286 283 285 287 289 289 290 291 287 290 289 290 290 289 289 289 288 284 280 278 278 276 276 276 274 273 272 272
291 291 291 291 291 290 290 291 290 290 290 290 291 291 291 291 291 291 291 292 291 290 289 283 283 288 286 286 286 283 288 289 289 290 290 289 290 289 288 288 286 277 276 273 273 273 273 271 271 271 270 270 269 270
290 289 290 290 290 291 290 290 290 290 290 290 290 290 290 289 290 289 290 289 289 290 289 286 275 280 285 283 283 282 286 288 289 285 288 289 288 288 273 273 272 271 270 269 269 270 267 267 268 268 268 268 268 268
289 289 289 290 290 290 290 290 290 289 289 289 290 290 288 290 289 287 288 288 287 288 290 288 288 289 286 286 284 288 289 288 288 281 281 270 274 282 270 268 268 267 267 266 265 265 265 265 265 266 266 266 265 264
287 288 288 288 289 289 289 289 289 289 289 289 288 288 289 289 287 287 286 285 286 287 277 280 282 285 282 283 283 286 286 286 287 269 276 276 279 267 265 265 265 264 262 262 262 263 263 264 264 263 262 262 262 262
287 287 287 287 288 288 288 288 288 288 288 288 288 287 289 287 288 287 282 277 275 274 274 276 282 285 283 285 284 284 284 283 271 275 279 279 268 265 262 262 262 262 262 262 262 262 261 261 260 260 260 261 261 261
286 286 286 286 287 287 287 287 288 288 288 288 288 287 286 283 281 280 277 274 273 275 271 274 278 282 276 284 285 283 282 278 279 279 279 263 262 259 260 262 261 261 260 260 259 259 259 259 259 260 260 260 261 262
285 285 285 286 286 286 287 287 287 288 288 288 288 287 284 273 267 266 265 271 270 271 275 276 280 285 279 286 286 283 283 279 278 278 265 260 261 261 261 260 259 258 258 258 258 257 258 258 259 259 260 261 262 262
285 285 285 286 286 286 287 287 287 288 286 286 282 281 271 274 271 269 270 272 270 274 276 279 281 284 283 284 284 282 277 277 275 256 256 257 256 256 256 256 257 257 256 256 257 257 258 259 259 260 261 262 262 261
285 285 285 285 286 287 287 286 285 284 284 278 269 262 265 268 269 263 264 267 268 270 275 278 281 281 279 283 280 271 274 260 253 252 254 255 255 256 255 255 255 255 255 256 257 258 258 259 260 262 262 261 261 262
285 284 284 285 286 287 284 283 282 277 272 270 267 260 262 261 262 261 261 265 268 269 268 273 271 272 272 273 272 258 254 250 251 252 256 256 254 253 254 254 255 255 256 257 257 258 259 262 262 262 261 261 261 262
284 285 285 286 284 283 281 277 274 270 266 263 264 263 260 259 262 262 260 264 265 264 265 265 267 267 265 256 254 250 247 249 252 256 257 255 256 254 254 255 256 257 257 258 259 261 262 262 262 262 261 261 261 261
281 283 281 283 283 279 277 274 270 267 264 265 262 259 260 260 257 252 252 261 265 261 264 265 259 253 255 256 256 256 257 256 252 250 253 255 257 257 257 258 258 258 259 259 261 261 261 261 262 261 261 261 261 261
281 279 281 280 273 270 270 270 268 266 265 263 260 261 261 256 252 252 253 260 260 263 260 251 250 252 252 253 254 254 253 254 252 253 252 253 258 259 260 259 258 258 259 259 260 260 260 260 260 261 261 261 261 261
275 275 274 274 271 268 268 266 267 264 262 260 260 256 253 254 253 252 256 256 258 253 251 252 250 249 249 250 251 255 257 256 256 255 257 258 258 259 260 258 257 257 258 258 258 259 259 258 259 260 260 260 261 261
273 272 268 266 268 265 265 263 263 263 262 260 255 258 256 253 254 258 258 251 251 252 248 247 250 254 251 257 257 258 258 257 254 256 256 257 258 259 259 258 256 256 256 257 257 257 258 257 257 258 258 259 259 259
268 261 261 261 261 260 257 259 260 259 259 258 257 258 257 254 258 257 258 248 250 248 249 250 250 252 253 254 253 254 258 258 258 257 257 257 258 258 258 258 256 255 255 255 256 256 256 256 256 256 256 256 257 256
265 256 257 256 256 258 256 255 256 258 258 256 258 258 258 255 259 256 257 252 249 248 251 251 253 253 254 256 258 258 258 258 258 258 257 257 257 258 258 258 257 256 255 254 254 254 255 255 255 255 255 254 254 254
255 252 254 251 254 256 254 256 255 257 256 257 258 254 252 258 259 258 255 250 247 252 254 256 256 256 256 257 258 258 258 258 257 257 259 258 257 256 256 256 256 256 256 255 254 253 254 255 254 254 254 255 254 255
254 252 251 249 252 253 253 254 255 257 257 258 255 257 259 260 258 257 250 252 256 258 259 259 259 258 258 258 259 259 258 258 257 257 257 257 257 257 257 255 254 257 256 256 255 255 254 254 255 255 255 255 254 254
251 249 255 251 250 248 251 251 254 255 256 255 255 258 260 262 260 254 256 259 260 259 259 259 259 259 259 259 259 259 258 258 258 258 258 258 258 258 258 258 258 257 257 257 257 257 256 256 256 256 256 255 256 255
250 245 248 251 248 249 249 251 250 247 248 247 253 256 257 255 253 252 258 259 259 259 258 258 259 259 259 259 259 259 259 258 257 256 256 256 254 260 260 259 258 258 258 258 258 257 256 256 258 256 256 256 256 256
250 243 251 249 252 254 250 246 246 241 241 244 244 249 251 252 255 257 258 258 258 257 258 259 260 259 258 258 258 259 260 260 259 257 253 253 256 260 259 259 259 259 258 258 258 259 258 258 258 258 257 256 256 256
241 242 248 247 251 246 242 238 237 239 239 240 237 245 247 246 250 255 257 258 258 258 258 257 258 259 258 257 255 250 254 262 261 260 260 260 260 259 260 260 259 259 259 258 258 257 256 256 256 255 255 255 256 255
242 245 249 255 251 243 238 240 240 243 240 243 245 238 244 246 250 251 258 257 256 255 257 257 256 258 261 261 261 260 261 261 261 260 260 260 260 260 260 260 260 260 259 259 259 258 257 256 255 255 254 255 256 256
240 238 238 244 248 249 243 244 245 246 244 244 244 240 240 245 253 252 258 258 260 260 260 261 261 261 261 260 260 261 261 261 261 261 261 261 261 261 261 262 262 261 260 260 259 258 257 257 256 256 255 255 255 256

GFSWCAN_925_thetae_009.txt.gz
Theta_e
294 294 294 294 294 293 294 294 294 294 293 293 294 294 296 296 296 296 295 294 294 294 292 291 291 291 291 288 287 284 287 284 286 287 280 291 285 291 289 290 290 286 280 280 277 280 288 288 288 288 287 289 290 292
294 294 294 294 294 294 294 294 294 294 294 294 294 294 294 296 296 295 294 294 294 293 292 292 292 292 292 291 290 283 289 281 288 285 280 280 280 279 281 281 288 284 286 282 286 286 289 288 288 289 289 290 289 289
293 294 294 294 294 293 293 294 293 293 293 293 294 294 294 295 296 295 294 294 293 293 293 293 292 292 292 292 292 291 288 291 290 288 287 289 287 286 283 281 286 287 288 288 285 288 288 288 288 288 288 289 288 287
293 293 293 294 294 294 293 293 293 292 292 292 293 293 294 294 295 295 294 293 293 293 293 290 291 291 292 292 292 292 291 290 290 291 292 290 286 288 288 288 287 287 287 286 287 288 288 288 288 288 287 286 285 283
293 293 293 293 293 293 293 293 293 292 292 292 292 293 293 293 293 294 294 293 293 292 288 290 286 290 290 291 290 290 290 291 292 292 292 292 288 289 287 288 289 288 288 288 288 288 288 288 288 287 285 284 282 280
292 292 292 293 293 293 293 293 293 293 292 292 292 292 292 293 293 293 292 292 292 292 293 292 288 284 291 290 289 289 290 290 292 292 292 292 289 290 290 290 289 288 288 288 288 288 287 287 286 283 281 279 279 278
291 291 292 292 292 293 292 292 293 292 292 292 292 292 292 292 293 292 292 290 291 292 292 292 289 282 287 286 283 288 288 290 291 292 292 292 291 291 291 290 289 288 288 287 287 285 285 284 283 277 278 276 275 274
291 291 291 292 292 292 292 292 292 292 292 292 291 291 292 292 293 293 292 291 291 292 291 291 282 281 284 282 284 286 288 289 291 291 289 291 291 291 291 290 289 289 287 285 277 277 277 275 275 274 273 272 271 272
290 290 290 291 292 292 292 292 292 292 291 291 291 291 291 291 291 291 292 292 291 291 290 289 285 284 284 285 286 284 289 290 290 290 290 289 290 290 288 288 285 275 275 272 273 272 271 271 271 271 270 269 269 269
289 290 290 291 292 292 292 291 291 291 291 291 290 290 291 290 290 290 291 291 292 290 290 288 274 279 285 283 278 280 287 289 288 288 287 289 288 288 275 272 271 270 269 268 269 271 267 267 268 267 267 267 267 267
288 289 289 290 290 290 290 291 291 291 290 290 290 290 289 290 290 289 289 289 289 288 288 280 282 284 282 280 281 287 289 289 289 282 285 281 276 283 270 268 267 267 266 266 264 265 265 265 265 265 265 265 264 263
287 288 289 288 289 289 290 290 290 290 289 289 289 288 289 289 289 288 288 288 288 285 276 285 285 284 279 284 287 288 289 288 288 273 277 273 279 267 265 265 265 264 262 262 262 262 263 264 263 263 262 261 261 261
286 286 287 288 288 288 289 289 290 290 289 288 288 288 289 288 288 287 284 283 280 272 270 273 278 281 286 287 288 289 288 286 274 275 278 278 268 264 261 262 262 261 261 262 261 261 261 260 260 260 259 260 260 260
285 286 286 287 287 287 288 288 288 289 288 288 288 287 287 286 287 280 275 277 274 272 270 270 273 283 283 286 288 286 285 279 279 278 278 265 262 258 259 260 257 260 259 258 258 258 258 258 259 259 258 259 259 260
285 285 285 286 286 286 287 287 288 288 288 288 288 285 285 272 265 263 262 266 267 269 273 274 276 286 284 287 287 285 284 285 279 278 267 260 260 258 258 257 255 256 257 257 257 256 257 257 257 257 258 259 259 261
285 285 285 285 285 286 286 287 287 287 287 287 283 282 274 271 268 268 265 271 270 275 274 278 283 284 285 285 285 282 280 279 277 260 258 258 255 254 253 253 254 255 254 255 255 255 256 256 257 257 258 259 261 261
285 285 285 285 286 286 286 286 286 284 283 277 274 267 271 270 271 266 268 269 269 272 272 277 282 281 281 283 281 275 276 266 258 254 251 252 252 253 252 252 252 253 253 254 254 255 256 257 257 258 260 262 261 261
284 284 284 285 285 286 283 281 278 276 272 270 274 264 264 263 265 264 263 266 268 269 267 274 273 274 276 275 272 262 255 250 248 250 253 252 250 250 252 251 253 254 254 254 255 256 257 257 260 262 262 261 261 261
282 284 284 284 285 282 280 274 273 271 266 263 265 264 262 262 263 261 260 264 264 263 265 264 268 268 269 257 255 250 247 248 252 255 254 253 255 253 254 255 256 255 256 256 257 259 261 261 261 262 261 261 261 261
281 280 280 282 283 279 275 271 270 269 269 266 263 263 262 262 259 256 255 261 264 258 265 265 263 255 259 255 252 252 253 255 251 251 253 255 256 256 256 256 256 257 258 259 259 260 260 260 260 261 261 261 261 261
280 278 279 278 273 271 270 271 268 267 265 265 264 263 261 257 253 252 253 259 260 263 261 250 248 247 247 250 254 254 254 254 251 251 252 253 256 257 259 258 258 258 258 258 258 259 259 258 258 259 260 261 261 261
274 274 274 273 271 270 269 266 268 265 264 262 262 258 255 255 253 252 255 257 257 253 250 250 248 247 248 250 248 254 256 255 254 254 255 256 255 258 259 258 257 257 257 257 257 258 258 257 257 258 259 259 260 259
273 271 267 265 268 267 266 264 265 262 265 262 258 260 256 252 252 258 258 251 250 250 246 246 248 251 249 255 255 256 256 256 251 254 256 257 258 259 258 258 256 256 256 256 256 256 257 257 256 256 257 258 258 258
268 260 260 260 261 261 256 259 260 260 259 258 258 258 256 252 256 256 258 248 249 246 247 248 247 249 250 250 250 250 257 257 257 257 257 257 259 258 258 258 257 256 255 255 255 255 256 255 255 256 255 255 255 255
266 256 257 256 254 257 256 254 255 258 258 253 255 256 256 250 256 255 257 252 247 247 247 245 247 249 249 249 252 257 258 258 258 257 258 258 258 258 258 258 257 256 256 255 254 254 255 255 255 255 255 254 254 254
255 251 254 249 253 256 253 256 254 255 253 255 254 251 248 253 257 259 254 250 246 248 249 253 253 252 252 255 257 257 258 258 258 257 259 258 258 257 256 257 256 257 256 255 255 254 254 255 255 255 255 255 255 254
254 252 250 247 250 250 252 251 251 253 255 257 252 254 254 259 258 257 250 249 250 255 259 259 259 256 256 257 259 259 259 259 258 258 258 258 257 257 257 256 256 258 257 257 256 256 255 255 255 255 255 256 256 255
250 248 255 250 249 246 250 249 252 254 253 252 252 256 257 259 259 253 253 258 259 259 260 260 260 260 260 260 260 260 259 258 258 258 259 259 259 259 258 258 259 258 258 257 257 257 257 256 256 256 256 256 256 256
249 244 247 251 248 249 249 251 251 248 248 247 253 254 255 253 250 250 258 259 259 259 258 258 258 259 259 259 260 260 259 258 257 256 256 255 255 260 261 260 259 259 258 258 258 257 257 257 257 257 257 256 256 256
249 242 251 249 253 255 249 244 245 240 239 243 242 249 249 249 254 256 257 258 257 257 258 259 259 259 259 258 258 260 260 260 259 258 252 253 256 260 260 259 259 259 259 259 259 259 259 259 259 258 257 257 256 256
240 241 248 247 251 245 241 236 236 237 238 239 236 244 247 247 250 255 256 257 258 258 258 257 258 259 259 258 256 252 254 262 261 261 260 260 260 260 260 260 260 260 259 259 259 259 258 258 257 256 256 255 256 255
241 244 249 254 250 242 237 239 238 242 240 242 245 238 244 246 251 251 258 256 256 255 257 258 257 258 261 261 261 260 261 261 261 261 260 260 260 261 261 261 260 260 260 260 259 259 258 257 256 255 254 255 256 256
239 238 238 244 247 249 242 243 244 246 243 244 244 240 239 245 253 252 257 257 258 259 259 260 260 260 260 260 260 261 261 261 261 261 261 261 262 262 262 262 261 261 260 259 259 258 258 257 256 256 256 256 256 256

GFSWCAN_925_thetae_015.txt.gz
Theta_e
295 295 295 295 296 295 296 296 295 296 296 296 295 295 295 295 297 297 297 295 294 294 292 290 290 290 290 287 286 283 286 283 284 282 280 288 283 288 287 288 289 288 281 275 272 280 288 287 287 287 287 287 286 286
295 295 295 295 295 295 295 295 295 295 296 296 295 296 295 294 294 296 295 295 294 294 294 293 292 292 292 290 288 284 288 283 289 284 281 283 280 280 283 285 288 287 286 284 284 284 287 287 287 288 288 287 287 286
294 295 295 295 295 295 296 296 296 296 296 295 295 295 296 295 295 295 294 294 294 293 293 292 292 293 292 292 292 289 283 289 288 288 287 288 287 286 281 281 285 286 285 287 288 288 286 288 288 288 287 287 287 286
293 293 294 295 295 295 295 295 295 295 295 295 295 295 295 295 295 295 294 294 294 293 294 291 291 290 292 292 291 291 291 289 289 289 291 289 286 289 288 289 289 289 286 286 287 288 288 288 287 287 287 287 286 285
292 292 293 293 294 294 294 294 295 295 295 295 295 295 295 294 294 294 293 293 293 294 293 292 287 291 292 292 290 290 290 290 291 291 292 291 288 290 287 289 289 289 289 288 288 288 288 288 288 287 286 286 281 280
292 292 292 292 293 293 293 294 294 294 294 294 295 294 294 294 294 293 292 292 293 293 293 293 289 283 289 290 290 289 290 290 291 292 292 291 289 290 290 288 289 288 288 288 289 288 288 288 284 280 281 279 277 276
291 291 292 292 292 292 293 293 293 293 293 294 294 294 294 294 293 292 292 291 291 292 293 292 287 283 286 286 283 288 289 291 291 292 291 291 290 291 291 290 289 289 288 288 288 286 287 286 284 277 276 275 273 272
290 290 291 291 291 292 292 292 292 293 293 293 294 294 294 294 294 293 292 292 291 291 291 292 285 279 283 283 286 286 289 290 291 291 289 290 289 290 290 289 289 289 288 288 279 277 277 275 275 274 271 270 270 270
289 289 289 290 290 291 291 292 292 292 292 293 293 293 294 293 292 291 292 292 292 291 292 291 288 283 282 283 284 283 288 289 289 290 290 288 284 288 287 288 288 287 282 278 274 273 272 272 271 270 268 268 267 268
287 288 288 289 289 289 290 291 291 292 292 292 293 292 292 290 292 291 291 291 292 291 290 290 279 285 285 283 280 285 286 288 289 287 286 289 288 288 285 274 273 272 270 271 273 271 267 266 268 267 266 266 266 266
286 286 287 287 288 289 289 290 291 291 291 292 291 291 289 291 290 289 290 291 289 288 289 285 281 280 281 284 284 287 288 288 289 283 285 274 278 286 272 269 268 268 267 265 266 266 265 264 265 265 265 264 263 263
286 286 286 286 287 288 289 289 290 290 291 291 290 289 290 290 290 290 290 287 286 283 275 279 282 286 284 285 286 287 287 287 288 270 278 276 281 269 268 267 265 264 263 262 262 262 263 263 262 262 261 261 260 260
286 286 286 286 286 287 288 288 289 290 289 289 289 288 290 289 289 289 285 279 278 272 273 276 282 283 285 287 287 288 287 287 274 279 278 279 271 264 263 263 262 261 260 260 260 259 259 259 259 259 258 259 258 258
286 286 286 286 286 286 287 287 288 289 289 289 289 288 288 288 289 278 279 279 277 276 275 276 277 283 284 287 288 286 284 280 279 278 278 273 263 261 261 260 258 258 256 257 256 256 257 257 257 257 257 258 257 256
286 286 286 286 286 287 287 287 288 289 289 289 288 288 287 272 264 260 258 269 268 272 278 278 278 285 284 287 287 284 281 281 277 278 272 261 260 260 259 256 253 254 254 253 254 252 255 255 255 255 257 257 257 256
286 286 286 286 286 286 287 287 288 288 288 288 283 281 272 275 268 265 262 267 265 274 273 278 282 285 284 283 286 284 279 277 278 263 257 259 258 256 255 254 255 252 251 251 252 253 253 254 254 255 255 257 259 259
286 285 285 285 285 286 286 286 287 278 281 279 275 268 272 274 278 272 269 267 271 274 275 276 280 282 282 283 279 273 276 271 258 254 258 259 259 258 255 250 250 251 251 252 253 254 254 256 255 254 250 260 261 261
282 283 285 285 285 284 281 277 277 276 274 269 274 268 266 264 266 264 261 269 273 272 272 276 279 280 279 277 272 267 259 254 256 258 256 252 248 248 250 248 253 253 252 254 255 255 255 255 254 255 259 261 261 261
282 282 284 285 285 280 277 271 272 272 263 261 263 263 262 262 263 263 263 268 267 267 272 275 280 279 275 262 259 253 249 252 254 255 253 252 253 252 253 254 254 255 255 255 256 256 258 258 258 259 259 260 261 261
280 280 279 281 283 276 273 270 269 268 268 265 261 261 262 261 260 258 261 265 270 270 272 276 276 260 261 256 253 253 253 254 252 250 252 253 255 255 255 255 255 257 257 257 258 258 258 258 258 258 259 260 260 260
279 277 278 279 272 270 269 268 266 265 263 260 263 263 261 261 259 260 263 263 269 271 272 260 258 253 245 245 249 251 252 253 250 251 252 252 255 255 257 257 257 257 257 257 256 258 258 257 257 257 258 258 259 259
272 274 275 273 272 268 265 265 266 265 263 260 263 261 261 262 261 260 259 266 265 258 256 254 251 246 247 249 247 253 253 254 253 254 254 255 254 255 256 257 257 256 257 257 257 257 257 257 257 257 257 257 258 257
271 270 267 268 270 267 264 265 266 263 267 264 261 266 262 262 260 260 265 256 253 250 244 244 244 246 246 249 251 253 253 254 247 251 254 255 257 257 258 258 257 257 257 257 257 256 256 256 256 256 256 256 256 256
267 258 260 261 264 264 261 262 264 264 264 264 267 265 262 260 256 259 260 251 250 245 244 244 244 247 247 248 247 245 255 255 255 256 256 256 255 258 258 258 258 257 257 256 256 256 256 256 256 256 256 256 255 255
265 255 256 256 254 258 262 262 262 264 264 255 258 259 256 248 258 257 258 253 247 246 245 240 243 246 248 244 245 253 257 257 255 256 259 258 258 258 258 258 258 258 257 257 256 256 256 256 256 256 256 256 255 255
256 250 253 248 254 258 254 258 255 256 254 255 253 249 246 253 260 262 255 250 246 246 246 249 251 247 248 249 251 251 258 258 258 257 259 259 258 258 257 257 257 258 258 258 257 256 256 256 256 256 256 256 256 255
255 252 248 245 248 250 253 250 248 251 254 257 252 253 254 261 260 258 250 248 250 253 255 256 256 255 254 256 259 259 260 260 259 259 259 259 259 258 258 257 257 259 259 258 258 257 256 256 255 255 255 256 257 256
248 246 254 249 248 243 249 247 250 254 252 249 251 259 261 261 260 255 254 256 256 257 257 258 259 259 260 260 260 260 260 260 259 259 259 259 259 259 259 259 259 258 258 258 258 258 257 256 256 256 256 256 257 258
249 243 244 251 249 251 249 251 251 247 247 248 256 258 257 255 252 252 256 256 258 258 257 257 258 258 259 260 260 260 260 260 258 257 257 256 256 261 261 261 260 260 259 259 258 258 258 257 257 258 258 257 258 258
248 242 252 250 254 255 249 243 244 239 237 241 241 248 252 252 253 254 255 256 257 257 258 259 259 258 258 258 259 260 261 261 260 259 253 253 256 260 260 260 260 259 259 258 258 259 259 258 258 258 258 257 258 257
239 240 247 247 251 245 240 235 235 235 235 237 234 243 247 243 249 254 254 255 256 257 257 257 258 258 258 257 257 254 255 261 261 260 260 260 260 260 261 260 260 260 259 259 259 259 258 258 257 257 257 256 257 256
240 242 247 253 250 241 235 237 237 241 240 243 245 239 247 251 256 255 256 255 255 255 257 257 257 258 260 259 259 259 260 260 260 260 260 260 261 261 261 261 261 261 260 260 260 259 258 257 256 256 255 256 256 256
245 242 240 244 246 248 241 242 244 246 243 244 246 244 243 247 257 254 258 257 256 256 257 258 258 258 259 260 260 260 261 261 261 261 262 262 262 262 262 262 262 261 260 260 259 259 258 257 256 256 256 256 256 256

GFSWCAN_925_thetae_021.txt.gz
Theta_e
296 296 297 297 297 297 297 297 297 297 297 297 297 297 297 297 297 298 297 295 295 295 296 294 295 295 294 295 296 291 293 292 294 294 294 293 293 293 292 292 292 291 293 294 293 292 292 292 291 292 293 292 293 291
294 295 296 296 296 297 297 297 297 296 297 297 296 297 297 297 297 296 297 295 294 293 296 295 294 294 294 294 296 291 297 293 294 295 295 294 294 293 293 293 292 291 292 292 293 292 292 291 292 293 293 293 293 292
293 294 294 295 295 296 296 297 297 297 297 297 296 297 297 296 296 296 296 295 294 293 294 294 295 294 294 293 294 296 294 294 293 294 296 294 294 293 293 293 293 292 292 292 292 291 292 292 292 292 292 292 292 291
294 294 294 294 294 294 295 295 296 297 297 296 296 297 296 296 297 297 296 295 294 295 296 297 294 294 295 294 293 293 295 293 293 294 293 294 294 293 294 293 293 293 292 292 292 292 292 291 291 291 291 291 291 290
293 293 293 293 293 293 293 294 294 295 296 296 296 297 297 296 296 297 296 295 294 295 296 296 291 292 293 293 294 294 294 294 294 294 294 294 293 293 293 292 293 292 292 292 292 292 291 291 292 292 291 290 290 290
293 293 292 292 292 293 293 293 293 294 294 295 296 296 296 296 297 296 294 295 294 293 294 295 294 294 293 293 294 294 294 294 294 294 294 294 293 293 294 293 292 292 292 292 292 292 291 292 291 291 290 290 287 283
292 292 292 292 292 292 292 293 293 293 294 294 295 295 295 295 296 294 295 294 294 293 294 295 294 291 290 292 293 294 294 294 294 294 294 294 294 293 293 293 292 292 292 292 292 291 291 291 290 289 285 282 279 277
290 290 291 291 291 291 292 292 293 293 293 293 294 294 295 295 295 295 294 293 292 294 292 295 293 290 289 290 292 291 292 292 293 293 294 294 293 294 294 293 292 292 292 292 292 291 289 287 284 280 279 277 276 276
288 288 289 289 290 291 291 292 292 292 292 293 293 294 294 294 293 293 294 294 293 293 294 294 294 293 287 291 291 290 291 293 292 293 293 293 293 294 293 292 292 291 291 291 288 280 279 280 282 278 276 274 274 275
288 287 288 289 289 290 290 290 291 291 291 292 292 292 294 292 293 293 294 294 293 292 292 294 294 294 290 290 290 291 291 292 293 292 291 293 293 293 292 291 289 282 280 279 281 281 276 276 277 275 273 272 271 271
287 287 288 288 288 289 289 289 289 290 290 291 292 293 292 292 293 293 295 295 295 294 293 294 293 291 287 290 291 290 292 291 292 292 292 292 292 291 290 285 275 274 273 271 272 272 271 271 273 272 270 269 267 266
287 287 288 288 288 287 287 288 288 289 290 290 291 290 291 292 294 293 294 293 293 294 291 291 292 292 288 289 290 290 290 290 290 286 290 291 290 283 278 274 271 270 269 267 267 267 267 267 266 265 265 265 264 263
286 286 286 287 287 287 287 287 287 288 289 290 290 291 292 293 293 292 291 293 293 288 287 288 289 291 288 289 290 290 290 290 284 288 289 289 285 273 270 267 265 264 264 264 263 263 262 263 262 261 262 261 261 260
286 286 286 286 286 287 287 287 287 288 289 290 291 291 291 292 292 292 292 293 290 290 287 289 289 289 289 289 290 290 288 284 287 288 288 289 283 269 267 265 263 262 262 262 261 261 260 260 260 260 259 259 258 258
285 285 285 286 286 287 287 287 287 287 289 290 290 290 291 287 283 279 275 282 284 288 287 286 287 288 289 289 289 288 285 287 287 288 289 280 268 265 263 263 262 261 260 260 259 259 259 259 259 258 258 258 257 257
285 286 286 286 286 286 287 287 287 287 288 289 287 286 279 285 284 278 277 282 277 285 286 288 287 288 288 289 289 288 287 286 288 286 274 266 264 264 262 261 260 259 258 259 258 257 258 257 257 257 257 257 258 258
284 283 284 285 286 286 286 287 286 283 283 282 281 275 279 280 282 281 279 279 277 285 288 287 288 288 287 287 287 288 288 288 278 270 267 266 263 261 259 258 257 256 257 256 256 256 256 256 255 255 256 260 259 259
281 282 284 285 285 285 280 277 280 280 277 273 279 274 271 269 273 273 273 276 280 283 284 287 285 286 287 287 287 286 274 265 265 266 264 261 259 257 258 259 256 255 256 255 255 255 256 256 258 260 259 260 260 262
281 281 283 284 284 280 277 274 274 277 270 268 269 269 268 268 268 268 269 272 273 274 281 284 285 286 285 282 279 270 267 267 265 263 261 258 258 256 255 255 255 256 256 256 257 259 258 258 258 258 260 260 261 262
280 279 279 281 281 277 275 272 271 273 273 268 267 268 267 267 266 267 269 271 275 278 281 283 283 274 273 266 263 265 265 263 263 263 262 260 258 255 257 258 259 257 258 257 258 258 259 260 259 259 259 260 260 260
277 276 276 279 271 270 270 270 268 267 267 268 266 267 267 266 266 268 270 267 275 277 277 265 263 258 255 256 255 260 260 263 263 265 265 261 258 259 257 257 257 258 259 259 260 260 259 259 259 258 259 259 259 259
272 274 274 273 270 267 268 266 268 266 267 265 267 266 267 268 266 265 263 271 269 262 260 261 260 258 258 258 256 254 254 256 256 257 258 258 258 259 259 259 259 259 259 259 259 259 259 258 258 258 258 258 258 258
270 271 269 269 271 269 266 266 267 266 269 267 266 269 266 266 263 263 269 263 260 255 253 253 252 251 255 251 252 252 253 256 257 258 257 258 258 258 259 258 258 259 259 259 258 258 259 258 258 258 258 258 258 258
268 261 263 264 266 266 264 265 266 266 266 268 270 269 266 264 260 267 270 264 258 255 256 254 255 256 255 255 257 256 254 255 255 255 256 258 259 259 258 259 258 258 258 258 258 258 258 258 257 258 258 258 258 258
269 258 260 261 260 264 265 265 266 268 267 263 267 266 263 257 268 268 267 264 260 258 256 252 254 256 258 257 255 255 255 255 258 259 257 257 259 259 259 259 259 259 259 258 258 258 258 258 257 257 257 257 257 257
259 252 257 256 259 262 260 266 263 263 263 266 262 257 256 263 267 266 263 260 259 257 255 255 256 257 256 257 258 257 257 257 257 259 260 259 259 260 261 261 261 260 259 259 259 258 258 258 257 257 257 257 257 256
259 256 253 249 253 254 258 256 256 261 262 263 260 261 262 264 265 262 259 257 257 255 254 255 256 258 260 257 258 259 259 259 259 260 260 260 260 260 259 260 260 260 259 259 259 259 258 258 257 257 257 257 257 257
252 250 254 253 253 251 255 255 258 258 258 254 255 261 262 262 262 259 258 256 254 254 254 256 257 257 258 259 259 260 260 259 259 260 259 259 259 259 259 259 259 259 258 259 259 258 258 258 258 257 257 257 257 258
253 249 249 253 252 255 253 255 255 252 249 252 258 261 259 258 255 256 256 254 254 255 255 256 257 258 259 259 260 260 260 260 260 261 261 262 261 260 260 260 260 260 260 259 259 259 259 259 259 259 259 258 258 258
251 245 256 257 259 258 252 247 250 245 245 245 245 251 254 256 255 254 254 254 256 256 256 257 258 258 260 260 260 260 260 261 260 260 259 259 259 260 260 260 260 260 260 259 259 260 259 259 259 259 258 258 257 257
245 247 253 254 256 251 247 242 241 240 242 244 241 248 254 252 253 255 255 254 254 255 256 258 258 258 259 259 259 260 261 260 260 260 259 259 260 260 260 260 260 260 260 259 259 259 258 258 257 257 256 256 256 256
251 250 251 255 253 245 242 245 246 249 249 251 253 248 252 255 261 259 257 256 256 257 257 257 258 259 258 258 259 259 259 259 260 260 260 260 260 261 261 261 261 260 260 260 259 259 258 257 256 255 255 255 255 256
251 250 252 253 257 257 251 250 252 252 250 254 253 250 251 253 259 258 258 257 255 255 255 256 257 258 258 258 259 260 260 260 259 259 259 259 259 259 259 259 259 259 259 259 258 258 257 256 256 255 255 255 255 255

GFSWCAN_925_thetae_024.txt.gz
Theta_e
296 297 297 297 297 297 297 297 297 298 298 298 298 297 297 298 297 297 297 296 295 294 295 295 295 295 294 294 293 289 290 290 291 290 289 293 289 292 290 291 291 289 286 285 286 287 292 291 290 291 291 292 290 290
294 296 296 297 297 297 298 297 297 297 296 298 298 298 298 297 297 298 297 296 295 295 294 294 295 295 295 295 294 289 293 289 292 292 291 292 288 290 289 285 291 289 289 286 289 288 291 290 290 290 291 289 290 290
293 294 295 295 295 296 296 297 297 297 297 297 297 297 296 297 298 297 297 296 294 293 294 293 293 295 294 294 294 292 292 293 293 293 293 291 289 292 287 289 289 290 289 290 289 290 290 290 290 290 289 289 289 289
294 294 294 294 294 295 296 296 296 296 297 297 297 297 297 296 297 297 297 296 294 294 296 294 294 294 295 294 294 294 294 293 293 293 293 293 289 292 292 292 291 291 290 289 290 291 290 290 290 290 290 289 288 288
294 294 294 294 294 294 294 294 294 295 296 296 296 296 297 296 297 297 297 296 295 295 296 293 292 294 295 295 295 294 293 292 294 293 294 293 291 292 293 292 293 292 292 291 291 290 290 290 289 289 289 288 287 287
293 293 293 293 294 294 294 294 294 294 294 295 295 295 296 297 297 297 295 296 294 294 295 295 294 290 294 294 295 294 294 293 293 294 293 292 291 292 294 293 292 291 291 290 291 291 291 290 289 288 288 288 287 285
292 292 293 293 293 293 293 293 293 293 293 294 295 295 296 296 296 295 294 294 295 295 294 295 294 290 292 292 290 292 293 294 293 294 294 294 293 293 294 293 292 290 290 290 290 290 290 289 290 288 286 283 280 278
292 292 292 292 292 292 292 292 293 293 293 293 294 294 295 295 295 295 294 293 295 294 292 295 294 288 290 292 292 292 293 294 294 293 291 292 292 293 293 292 291 291 291 291 290 289 288 285 283 280 279 277 275 276
291 291 291 291 291 291 291 291 292 292 292 293 293 293 293 293 294 293 294 294 293 293 295 294 292 290 287 289 290 291 291 292 290 292 292 291 291 292 291 291 291 291 291 290 283 279 277 279 280 277 276 274 274 275
289 288 288 288 289 289 290 291 291 292 291 291 292 292 293 292 292 293 294 294 293 293 292 294 288 291 289 288 290 289 289 290 289 290 290 291 291 290 290 290 289 284 281 281 279 278 273 274 276 275 272 272 272 272
289 288 288 288 288 289 290 290 290 290 290 291 291 292 292 293 293 293 294 294 294 294 293 292 291 287 285 287 290 290 289 288 290 285 288 283 285 290 289 289 278 277 275 272 272 272 271 271 272 271 270 268 268 267
288 288 288 288 288 289 289 289 289 289 289 290 290 290 291 292 293 293 293 291 293 293 289 289 290 292 287 288 290 289 291 291 291 282 288 284 286 286 277 273 271 270 269 266 267 268 268 268 266 265 265 264 264 264
287 287 287 288 288 288 288 288 288 288 288 289 290 290 291 291 292 293 292 288 284 286 286 284 289 290 288 289 290 290 290 290 285 288 284 283 283 273 269 266 264 264 264 264 263 263 263 263 262 262 261 261 261 261
286 286 286 287 287 287 287 288 287 288 288 289 289 289 290 290 290 290 285 284 284 285 286 288 288 286 288 289 291 290 289 284 287 285 282 280 279 270 265 263 262 261 262 263 261 260 260 260 260 260 260 259 259 258
285 285 285 286 286 287 287 287 287 287 288 288 289 288 289 282 278 274 274 280 280 284 288 287 288 289 288 290 291 287 285 287 283 282 281 275 266 264 262 260 260 259 258 257 258 257 258 259 258 258 258 258 258 258
283 284 285 286 286 286 286 287 287 287 288 287 288 286 277 279 279 275 274 278 277 284 285 288 288 288 289 290 288 287 286 282 281 279 269 264 261 260 259 258 258 257 257 256 257 257 258 257 257 257 257 259 259 259
283 283 283 284 286 286 286 286 287 287 287 286 280 270 276 282 284 278 275 279 277 284 285 287 288 288 288 288 288 285 281 278 269 266 265 262 260 258 256 255 253 255 255 256 256 256 256 256 256 256 252 259 259 260
281 281 283 285 285 285 281 278 281 282 279 274 278 272 270 269 272 274 273 276 279 282 284 287 285 285 286 286 284 278 269 264 265 264 261 259 256 255 256 254 255 256 256 256 256 256 257 257 256 257 259 260 260 261
281 281 280 281 282 279 277 274 273 278 271 269 269 269 267 267 268 268 269 272 274 275 278 283 286 286 286 277 275 270 268 266 264 262 259 257 256 255 255 256 256 256 256 256 257 258 258 258 258 259 259 259 260 261
279 279 279 280 281 278 275 271 272 274 271 269 268 268 268 267 264 265 269 271 274 277 281 281 277 268 267 263 261 263 264 263 263 262 260 258 256 256 256 257 258 257 257 257 258 258 259 260 259 259 259 259 259 259
277 276 276 278 272 270 270 270 267 267 267 266 265 268 267 266 265 268 270 267 275 272 273 264 261 258 257 256 257 260 259 262 261 261 262 259 258 259 257 257 258 258 259 259 257 259 259 259 258 258 258 258 258 258
273 274 274 273 271 268 267 266 267 265 265 262 264 263 262 264 262 262 263 271 266 259 258 259 259 258 257 255 254 254 255 257 258 259 258 258 257 255 253 257 258 254 258 259 259 258 259 258 258 258 258 258 258 258
271 272 269 269 271 269 265 265 265 265 268 264 262 265 263 261 260 262 267 261 257 254 252 252 253 253 254 253 254 254 255 257 256 257 258 258 259 259 259 258 259 258 255 259 258 258 258 258 258 258 258 258 258 258
268 261 263 264 266 265 263 263 266 264 264 264 268 267 263 262 261 267 267 259 254 255 254 253 255 256 255 255 256 255 255 256 256 256 257 258 252 257 259 259 259 259 259 259 258 258 258 258 258 258 258 258 258 258
268 258 259 259 261 264 266 267 267 268 266 263 268 267 261 257 268 268 266 261 260 258 256 254 256 257 259 257 257 255 255 256 256 251 257 259 259 258 258 259 259 259 259 259 258 258 258 258 258 258 257 257 257 257
258 253 254 252 256 259 260 266 263 262 264 265 261 259 256 262 266 262 259 257 255 255 255 254 254 254 254 254 253 251 257 257 259 257 259 259 259 260 256 257 259 260 260 259 259 259 259 258 258 258 257 258 257 257
258 253 250 248 251 252 254 254 256 260 261 261 258 260 261 263 261 258 255 253 252 254 254 254 256 254 253 256 258 258 259 259 259 259 259 260 260 260 260 259 259 260 259 259 259 259 259 259 258 258 258 258 258 258
250 248 252 250 250 248 251 252 253 254 255 253 251 257 259 258 257 252 252 255 254 254 254 255 256 257 257 258 259 259 260 260 260 260 260 260 260 259 259 259 259 259 259 259 259 259 259 258 258 258 258 258 259 259
248 247 247 251 250 251 249 250 250 249 249 249 254 257 255 252 249 249 255 254 255 255 256 257 258 258 259 259 260 260 260 260 260 260 260 260 259 259 259 259 260 260 259 259 259 259 259 259 259 259 259 259 259 259
251 247 254 257 258 256 250 245 245 242 244 246 246 250 253 255 255 255 254 254 254 254 255 257 258 259 259 260 260 260 260 259 259 259 258 257 257 259 259 260 260 260 260 259 260 260 260 259 259 259 259 258 258 258
243 243 249 251 253 249 245 242 243 243 244 246 245 249 253 252 254 256 256 255 255 256 257 258 258 258 259 259 259 259 259 259 259 259 259 259 259 260 260 260 260 260 260 259 259 259 259 259 258 258 257 257 257 256
251 251 251 254 251 242 238 240 241 245 248 252 253 250 253 254 258 257 257 256 256 257 257 257 258 257 257 257 258 259 259 259 258 258 258 258 259 259 259 259 259 259 259 259 258 258 258 257 256 256 255 255 256 256
249 248 250 253 255 255 251 251 252 251 251 254 252 250 251 254 258 257 258 257 255 255 255 257 258 258 259 259 259 258 257 257 257 257 257 257 257 258 258 258 258 258 257 257 257 257 257 256 256 256 256 256 256 256

GFSWCAN_925_thetae_027.txt.gz
Theta_e
296 297 297 297 297 296 297 298 297 297 298 297 298 298 297 298 297 297 296 295 294 289 292 294 294 293 293 291 290 287 289 288 289 285 286 293 287 291 288 289 289 289 287 283 281 282 291 289 289 290 289 290 289 288
295 296 297 297 298 298 298 298 298 298 298 298 297 298 297 297 298 297 297 296 294 292 289 294 294 294 294 293 289 284 288 284 290 287 284 285 283 283 284 285 290 289 289 286 289 288 289 288 289 289 289 288 289 288
295 295 295 295 297 297 297 297 298 298 298 298 297 298 298 298 297 297 297 297 295 293 294 292 291 295 294 294 294 289 285 290 291 289 285 285 284 288 284 284 286 288 288 289 287 289 289 289 288 288 288 289 288 287
294 294 294 294 295 296 296 296 297 297 297 297 298 298 298 297 298 298 297 295 294 293 289 289 293 294 295 294 294 294 292 291 290 291 287 286 283 291 288 290 289 290 288 288 289 290 289 289 288 288 288 287 287 287
294 294 294 294 295 295 295 295 296 296 296 296 296 297 297 297 296 296 297 296 295 294 294 287 290 294 294 295 294 294 293 292 290 293 293 290 288 289 285 291 291 291 291 291 291 290 289 290 289 289 288 288 287 287
294 294 294 294 294 294 294 295 295 295 295 295 295 295 295 296 297 297 295 296 296 295 295 295 292 287 294 294 293 292 292 292 293 294 293 290 290 291 290 286 291 291 291 291 291 290 290 290 290 288 287 287 286 286
293 294 293 294 293 293 294 294 294 294 294 294 294 295 295 294 296 294 295 295 296 295 294 294 294 287 291 291 289 291 292 293 293 294 294 291 292 293 292 292 291 291 290 290 289 289 290 289 289 287 286 286 283 280
294 293 293 293 293 293 293 293 293 293 293 294 294 294 294 295 295 295 294 294 295 293 292 294 293 287 288 293 293 291 294 293 294 294 290 292 292 293 293 291 291 291 290 290 290 289 290 289 285 282 280 277 275 277
293 292 292 293 293 293 292 292 292 292 293 293 293 293 293 293 293 294 294 295 294 294 294 293 290 283 288 291 291 291 292 293 293 293 291 291 288 292 290 290 290 289 289 290 287 280 279 283 283 279 276 274 276 275
292 292 292 291 291 291 291 291 292 292 292 291 292 292 293 291 292 293 294 294 293 293 293 293 279 289 288 286 284 289 291 292 291 289 289 292 291 290 290 289 287 286 285 282 280 279 274 275 278 276 276 273 272 272
291 290 289 289 289 289 289 290 291 290 290 291 291 292 292 293 292 293 293 294 291 292 293 287 289 287 282 286 285 289 287 289 291 288 289 285 285 290 289 289 285 281 278 273 274 273 272 273 274 272 270 269 269 268
289 289 289 289 288 288 289 289 290 290 290 290 290 290 291 291 293 292 292 287 291 288 281 288 284 286 287 286 287 289 289 289 291 281 285 283 288 286 284 279 273 273 271 268 268 269 269 269 268 267 266 265 264 263
288 288 288 288 288 288 289 289 289 290 289 289 289 289 289 287 291 288 284 291 280 284 284 280 286 287 288 289 289 289 290 290 284 290 288 284 280 278 272 269 265 264 264 264 263 264 264 262 262 262 260 261 261 261
286 286 287 287 288 288 288 289 289 289 288 287 289 288 288 285 285 286 279 281 282 280 282 281 286 286 285 289 291 291 289 286 288 288 283 277 280 277 269 266 264 262 262 262 260 260 260 260 259 259 260 259 259 259
285 285 286 286 286 287 287 288 288 288 287 287 287 286 285 277 271 270 269 276 279 280 287 286 283 288 287 289 290 288 285 287 284 281 279 278 273 269 266 263 261 260 259 257 257 257 258 259 258 258 258 258 258 259
283 284 285 285 286 286 287 287 287 287 287 287 284 283 274 275 272 270 270 276 276 284 287 287 288 289 289 289 290 288 286 283 281 276 266 265 265 264 263 261 258 257 256 256 256 257 257 257 257 257 258 259 259 259
282 282 283 284 284 285 286 286 286 287 287 286 280 260 271 282 282 277 272 277 277 286 286 285 288 288 288 289 288 286 284 277 264 263 264 263 264 261 259 258 254 255 254 254 255 256 256 256 256 257 255 259 260 260
280 281 282 284 285 284 282 279 282 281 279 274 274 267 262 263 269 269 270 274 277 283 284 286 286 287 287 286 284 278 267 262 263 263 262 260 259 258 257 255 254 255 254 255 256 256 256 256 256 256 258 259 260 260
281 281 280 281 283 280 273 272 273 277 271 269 269 269 263 263 264 266 266 270 273 274 276 282 284 286 279 270 269 267 266 266 266 262 259 258 257 256 255 255 255 255 256 255 256 257 258 258 258 259 259 259 259 259
279 279 279 278 280 277 274 270 271 270 269 269 269 269 267 265 265 261 261 267 273 276 279 280 273 265 265 263 261 263 265 264 262 262 260 258 256 256 256 256 256 256 256 256 257 258 259 258 258 258 258 259 258 258
276 276 276 278 272 269 268 269 268 268 268 266 265 268 267 266 265 265 263 266 274 267 269 262 261 259 258 257 256 258 258 261 261 260 259 258 257 257 256 257 257 257 257 256 255 257 258 258 258 258 258 258 258 258
273 274 273 273 269 265 264 264 265 263 264 262 265 264 260 260 259 261 263 267 262 258 257 257 257 257 258 256 255 254 255 258 258 259 259 258 258 257 254 256 257 253 257 258 258 258 258 258 258 258 258 258 258 259
271 272 269 267 267 264 263 262 262 263 264 263 258 262 260 257 257 262 264 259 257 255 253 253 253 254 255 254 255 256 256 258 258 257 257 256 257 258 258 258 259 257 254 258 258 258 258 258 258 258 258 258 258 258
268 261 263 263 262 262 259 261 263 264 264 264 262 262 258 253 258 264 259 256 255 255 255 254 254 255 255 255 255 255 255 256 256 256 257 257 253 256 258 259 259 259 259 259 258 258 258 258 258 258 258 258 258 258
267 257 258 258 259 262 262 262 266 266 264 261 263 260 257 253 265 262 261 259 259 258 256 256 257 258 258 257 256 255 256 257 256 251 257 259 258 257 258 259 259 259 259 259 258 258 259 259 259 258 258 258 257 258
258 252 253 248 255 259 259 263 261 261 263 263 258 257 255 260 264 260 257 257 256 254 254 254 254 256 256 253 253 253 258 258 258 257 259 259 260 259 251 252 253 260 260 259 259 259 259 259 259 258 258 258 258 258
257 252 249 246 249 250 254 255 258 261 261 261 258 259 261 263 259 255 253 254 253 254 253 253 253 253 252 256 258 258 259 259 259 259 259 260 259 259 259 259 258 260 259 259 259 259 259 259 259 258 258 258 258 258
248 248 252 250 249 245 249 249 250 255 256 253 254 259 260 258 257 254 254 255 254 254 255 256 256 256 257 258 259 259 259 260 260 260 260 259 259 258 258 258 259 259 259 259 259 259 259 259 258 258 258 258 258 259
249 247 248 254 249 250 247 249 250 249 248 248 254 257 255 254 252 252 254 254 255 255 256 257 258 259 259 259 259 259 259 260 260 260 260 259 258 259 260 260 260 260 259 259 259 259 259 259 259 259 259 259 259 259
249 245 254 257 257 255 251 246 248 245 246 246 247 251 253 255 256 255 254 254 254 254 255 257 258 259 259 259 259 258 258 258 258 258 256 256 257 259 259 260 260 260 259 259 260 260 260 259 259 259 259 258 258 258
242 243 248 250 253 249 246 243 244 244 246 248 247 251 254 253 255 256 255 255 256 257 257 258 257 257 257 257 257 258 258 258 258 257 257 258 258 258 258 258 259 259 259 259 259 258 258 258 258 257 257 257 257 256
251 250 252 255 252 244 238 241 246 248 249 252 253 252 254 256 257 257 256 256 256 256 256 256 256 256 257 257 258 257 257 256 256 257 257 257 257 257 257 257 257 258 258 257 257 257 257 256 256 255 255 255 256 256
250 250 250 253 254 254 251 251 253 254 254 254 254 252 251 255 256 256 257 257 257 257 257 257 257 257 257 257 258 257 256 255 255 256 256 256 256 256 257 257 257 257 256 256 256 255 255 255 255 255 255 255 255 255

GFSWCAN_925_thetae_030.txt.gz
Theta_e
295 297 297 297 298 297 297 298 298 299 298 299 299 299 298 298 298 297 295 295 293 291 292 293 294 294 293 294 295 290 294 292 292 293 290 293 288 290 288 288 289 289 289 289 287 290 290 288 288 290 290 289 289 287
295 296 296 296 297 298 297 297 298 298 297 297 297 298 298 298 297 298 297 296 294 290 291 293 294 294 294 293 290 285 292 288 291 289 286 288 284 283 285 287 289 289 289 286 289 288 290 288 290 289 289 288 289 288
294 295 294 295 297 297 297 297 298 298 298 298 298 298 298 298 298 298 297 296 294 294 292 292 292 295 295 294 294 290 287 289 291 289 285 285 284 288 284 284 286 288 287 288 287 288 289 289 289 288 288 288 288 288
294 295 295 295 296 296 296 298 298 297 297 298 298 298 297 298 297 298 297 296 296 294 292 290 292 293 295 294 293 292 291 290 289 290 285 283 283 289 286 288 288 288 287 287 287 289 288 288 287 288 288 287 288 287
294 294 295 295 295 295 295 296 296 297 297 297 298 297 297 298 298 298 297 296 295 294 293 286 289 293 294 294 293 293 291 289 288 288 283 285 286 289 285 291 288 289 291 290 290 290 290 290 289 288 287 287 287 287
293 294 295 294 294 295 295 295 296 295 296 296 296 297 297 297 297 297 295 296 296 295 295 290 289 286 293 293 292 290 290 289 289 293 288 288 289 292 292 292 292 291 290 290 291 290 289 289 288 288 287 287 286 285
293 293 294 294 294 294 294 295 295 295 295 295 294 294 295 295 296 293 295 295 295 294 294 294 290 286 289 290 285 290 291 288 293 294 293 291 291 293 293 291 292 289 289 289 289 289 289 289 289 287 286 287 286 285
292 293 294 294 294 294 293 294 294 295 295 294 294 295 295 294 294 295 294 294 295 294 292 295 290 286 288 291 293 290 294 293 293 294 291 292 292 293 293 292 291 290 290 289 288 288 289 289 285 285 282 279 278 279
293 293 292 294 294 293 294 293 293 294 294 294 294 294 294 294 293 293 294 294 294 294 294 293 286 285 288 292 292 291 293 294 293 294 292 293 290 293 291 291 291 290 290 290 286 281 281 284 286 281 277 275 277 277
292 291 293 293 293 293 293 293 293 293 293 293 292 292 293 291 292 293 294 293 293 292 293 289 280 283 288 287 289 290 291 292 291 291 290 292 292 292 291 287 288 288 288 284 284 284 274 276 278 277 276 274 274 274
291 292 292 292 292 292 292 292 292 292 292 291 291 292 291 292 293 292 292 293 292 292 291 284 284 284 284 286 289 290 290 291 291 288 289 287 287 291 290 289 288 287 283 281 280 276 274 275 276 275 272 269 269 268
291 291 290 290 290 290 290 291 291 291 290 290 290 291 291 292 292 291 292 287 291 286 280 289 282 285 283 283 287 288 288 288 290 280 285 284 288 288 285 287 287 278 276 271 270 271 270 270 270 269 267 264 263 264
288 289 289 289 289 289 289 290 290 290 290 289 288 288 290 289 290 291 290 284 283 278 284 282 286 286 288 288 288 290 290 289 284 288 287 284 287 280 282 274 268 267 267 266 265 265 264 262 264 263 261 262 262 261
287 287 288 288 288 288 289 290 290 289 288 287 287 288 288 287 284 286 278 279 282 280 281 281 286 285 287 289 290 290 289 286 289 289 284 288 279 280 271 266 266 265 264 264 262 261 261 260 259 260 261 261 261 260
285 286 286 286 287 287 288 289 289 289 287 286 286 287 288 275 269 267 266 274 276 276 286 284 282 288 286 289 290 289 286 288 287 283 280 274 269 269 266 264 263 262 261 259 257 258 259 259 258 257 258 259 259 259
284 284 285 285 286 287 287 288 288 287 287 287 283 281 270 273 271 269 268 274 274 281 283 285 288 290 289 289 289 288 286 284 282 275 266 267 267 266 264 263 261 260 259 257 257 257 257 257 257 258 258 259 259 259
281 282 282 283 284 285 286 286 287 286 285 286 278 259 266 270 275 270 271 275 277 284 286 286 288 288 288 289 288 282 280 275 268 267 264 264 263 262 260 260 259 258 256 257 256 257 256 256 257 258 255 259 260 260
280 280 282 282 284 284 283 280 282 281 278 272 272 264 262 260 267 268 272 273 279 285 285 287 285 287 287 287 281 274 268 262 262 260 260 258 257 258 259 258 258 258 256 256 256 255 255 256 256 256 258 259 259 260
280 280 280 280 282 280 274 272 273 277 271 263 269 268 265 262 264 265 265 270 272 273 277 278 282 285 281 270 268 267 265 264 262 261 259 258 259 258 257 256 256 255 255 255 255 256 257 258 258 258 258 259 259 259
279 279 278 278 280 276 274 271 270 273 271 268 265 267 267 267 264 261 262 268 273 275 277 275 266 261 262 261 260 261 262 263 262 263 261 259 257 257 257 257 257 256 255 256 257 257 257 258 258 258 258 258 258 258
276 276 275 277 271 269 269 269 266 267 267 265 265 269 268 267 265 263 264 266 267 262 264 258 258 258 258 257 256 257 259 259 263 262 261 259 257 257 256 257 257 257 256 256 256 256 258 258 258 258 258 258 258 258
273 274 273 272 269 267 266 265 267 266 267 262 267 266 265 266 263 262 263 263 260 257 256 255 256 256 257 257 256 255 256 258 259 259 259 258 258 258 257 256 256 253 255 257 258 257 258 258 258 258 258 258 258 259
272 271 268 267 267 264 263 263 266 266 268 266 263 267 263 260 261 263 261 258 256 256 254 253 254 254 255 256 256 257 256 258 258 257 257 257 257 257 257 257 258 257 254 258 258 258 258 258 258 258 258 258 258 259
268 261 263 262 263 263 259 263 264 264 264 264 265 266 263 261 260 264 259 255 257 256 255 254 255 257 258 258 257 256 255 256 256 256 256 257 255 255 258 258 259 259 259 259 259 258 258 258 258 258 258 258 258 258
266 257 259 260 258 260 260 260 262 265 264 264 266 265 262 256 264 261 260 257 257 256 256 255 256 257 256 257 257 256 256 256 256 254 257 258 257 257 258 259 259 259 259 259 259 258 259 259 259 259 258 258 258 258
256 252 255 250 256 257 257 260 259 259 261 263 260 260 257 262 261 258 257 256 254 254 253 252 252 254 257 255 256 256 257 257 258 257 259 259 259 259 252 251 251 259 260 259 259 259 259 259 259 259 259 259 258 258
257 253 250 249 252 253 258 257 258 260 259 259 257 260 264 262 259 257 253 255 254 254 253 253 252 251 252 254 257 258 258 258 258 258 259 259 259 258 258 257 257 259 259 259 259 259 259 259 259 259 259 259 259 259
249 249 254 251 251 246 250 251 254 255 255 253 255 257 258 257 255 255 255 255 254 254 255 256 256 256 256 257 258 259 260 260 260 260 259 258 258 258 258 258 258 258 258 258 258 259 258 259 258 258 258 258 259 259
248 247 248 253 249 250 248 249 250 249 248 249 256 257 256 256 254 253 254 254 255 255 256 257 258 259 258 258 258 258 259 259 260 260 259 259 258 259 259 259 259 259 259 259 259 259 259 259 259 259 259 259 259 259
249 243 253 254 254 253 250 246 248 246 246 247 247 252 254 254 255 255 255 255 255 255 256 256 256 257 257 258 258 258 257 257 256 256 256 257 257 257 257 258 258 258 258 258 259 259 259 259 259 259 259 258 258 257
243 245 250 251 251 248 247 244 245 246 247 249 249 252 253 253 256 256 256 256 256 256 256 256 256 256 256 256 256 256 256 256 256 256 256 256 256 257 257 257 257 257 257 257 257 257 257 256 256 256 256 256 256 256
251 251 252 254 251 244 240 246 248 249 249 251 252 252 253 255 255 256 256 256 256 256 256 255 255 255 256 256 255 256 255 255 255 255 255 255 256 256 256 256 256 256 257 256 256 256 255 255 255 255 254 254 254 255
250 250 250 252 253 253 251 251 254 255 255 254 254 253 253 256 256 256 256 255 255 255 255 255 255 255 256 255 255 255 254 254 253 254 254 255 255 255 255 255 255 255 254 254 254 254 254 254 253 254 254 253 253 253

GFSWCAN_925_thetae_033.txt.gz
Theta_e
294 295 295 296 298 298 298 298 299 298 299 299 299 299 300 299 299 296 295 294 294 291 293 293 293 295 294 297 298 293 296 294 294 299 298 294 291 290 288 289 291 291 291 290 288 292 292 289 288 291 291 288 288 286
292 294 296 296 297 298 298 298 298 298 299 299 299 299 298 298 299 298 296 295 294 289 290 292 293 294 294 294 292 290 295 292 294 293 290 291 288 284 285 287 289 291 290 289 291 290 290 288 290 289 289 288 288 288
290 292 294 295 296 297 297 298 298 298 298 299 298 299 299 298 298 298 297 295 294 291 289 292 293 294 294 294 293 293 289 290 291 290 288 288 287 288 284 285 286 288 286 289 288 288 288 288 288 288 288 288 288 288
289 291 294 295 295 296 296 297 298 297 298 298 297 297 298 298 298 298 297 295 295 293 288 289 291 292 294 294 293 292 291 289 289 290 287 285 286 289 288 289 289 289 287 287 287 289 288 288 287 288 288 287 287 286
289 291 293 295 295 295 296 296 296 298 298 298 298 298 298 298 298 298 297 296 296 292 290 285 287 292 294 294 292 291 290 290 289 288 284 286 287 288 285 289 288 288 290 289 288 289 290 290 288 287 287 287 287 286
289 291 292 294 295 295 295 296 296 296 296 298 298 298 297 297 297 299 295 296 295 295 295 291 289 286 291 292 291 289 289 289 288 289 287 288 289 291 286 283 292 291 289 289 290 290 289 288 287 287 286 286 286 285
289 291 292 294 294 295 295 296 296 295 295 297 296 296 297 297 297 293 295 294 296 295 294 293 290 285 289 288 284 289 289 288 289 290 288 291 290 292 293 287 293 290 289 289 288 289 289 288 289 288 286 286 287 286
291 292 292 294 294 295 295 295 295 296 296 295 296 295 294 295 295 292 293 295 295 294 293 295 288 287 289 291 292 288 291 291 291 294 291 289 292 294 292 292 291 290 288 287 287 288 289 288 285 285 284 281 280 281
290 292 291 293 293 295 295 295 295 295 296 296 295 295 294 292 293 293 293 293 293 292 293 291 287 287 288 292 291 291 293 293 293 293 292 293 291 292 292 291 290 290 290 290 288 284 284 284 287 283 280 276 279 280
289 290 292 293 293 294 294 294 294 295 295 295 293 292 292 290 292 293 295 294 293 292 292 287 277 281 288 288 288 289 289 290 293 292 290 293 293 293 290 287 288 289 289 288 282 281 274 278 282 281 279 276 277 274
290 291 292 291 291 293 294 294 294 293 294 291 291 290 290 292 292 289 292 291 291 292 291 281 280 286 285 287 285 290 290 290 291 286 292 291 287 292 290 288 288 287 285 282 285 286 280 280 281 279 273 271 271 270
291 292 292 292 291 294 293 293 292 291 290 290 289 290 291 292 290 291 292 287 290 286 281 287 281 283 280 280 284 289 289 289 291 281 287 285 289 290 284 287 288 288 282 279 274 277 273 273 271 272 269 266 264 264
290 290 290 290 291 291 292 292 291 290 290 290 289 288 291 290 291 289 291 286 285 277 283 283 284 284 284 286 287 288 288 287 282 288 289 284 289 280 282 282 273 266 268 269 266 267 266 264 265 265 262 263 263 261
287 289 289 289 289 289 289 291 291 290 290 288 288 289 289 288 286 287 277 278 280 278 279 279 285 286 285 288 290 289 289 285 288 289 284 286 277 271 269 265 266 265 264 266 263 263 262 261 259 261 261 262 261 259
287 287 287 287 288 289 289 289 290 289 287 287 287 288 286 275 269 265 263 271 274 274 283 283 283 288 286 290 291 289 287 288 287 283 279 269 266 265 265 262 261 262 261 259 258 259 259 259 258 256 259 260 261 260
285 284 284 285 286 287 288 288 289 288 287 286 284 282 270 274 271 270 268 275 276 283 283 285 286 290 289 288 288 289 286 284 281 270 263 263 262 261 260 259 259 259 259 257 259 259 259 259 258 257 258 259 259 260
280 282 282 283 284 285 286 286 286 285 283 284 279 261 265 272 277 274 272 277 277 282 283 286 288 289 289 288 288 285 283 273 265 263 261 259 259 258 257 258 257 258 257 258 258 258 256 257 258 258 256 258 259 260
279 281 281 282 284 284 283 279 280 279 277 272 274 265 263 261 266 267 269 272 277 281 283 286 286 286 287 286 282 273 270 266 264 263 261 259 257 258 258 256 257 258 258 257 257 256 256 257 258 256 258 259 259 260
280 280 279 280 282 280 269 271 273 276 270 267 269 268 266 265 265 265 264 270 272 273 279 281 284 283 274 267 264 265 263 263 263 261 259 258 258 258 258 258 258 258 257 256 256 256 256 258 258 258 258 259 259 259
279 278 278 276 280 274 268 268 270 273 272 269 267 269 268 267 266 265 266 269 274 274 270 269 263 260 261 260 259 259 260 261 261 261 261 261 259 258 258 258 257 256 256 256 256 257 257 257 258 258 258 258 259 259
276 275 275 277 271 269 268 267 265 267 267 267 266 268 267 266 265 266 267 267 266 260 262 259 259 258 257 258 257 256 259 258 260 261 262 262 259 258 257 257 257 257 257 257 257 256 257 257 258 258 258 258 258 259
273 273 273 272 270 267 266 264 265 264 265 261 264 265 264 264 262 262 263 262 260 257 256 256 255 255 255 256 255 256 256 257 259 259 259 259 258 258 257 257 257 257 256 256 257 257 258 258 258 258 258 258 259 259
271 271 268 266 268 266 264 265 266 265 267 265 263 267 263 263 262 264 261 258 257 257 255 254 254 255 254 256 257 257 256 257 257 257 257 257 257 257 257 257 257 257 256 257 258 258 259 258 258 258 258 258 258 259
267 260 262 262 264 264 262 264 265 266 265 265 267 266 262 260 261 263 259 257 255 255 255 254 254 254 255 257 256 256 255 256 257 256 256 257 257 255 257 257 258 258 258 259 259 258 258 258 258 258 258 258 258 258
264 256 259 259 259 262 263 263 263 265 263 263 265 263 260 259 264 260 259 257 256 253 253 253 252 252 253 255 256 256 256 256 257 258 256 257 257 258 258 259 259 259 259 259 258 258 258 258 258 258 258 258 258 258
255 252 256 254 257 259 258 261 260 259 261 262 261 261 261 264 262 257 255 255 255 254 254 252 251 252 256 255 256 257 256 257 258 258 257 258 258 257 254 251 250 259 259 259 258 258 259 259 259 259 259 259 259 258
255 253 252 252 253 255 258 257 258 258 257 258 255 260 263 261 258 256 255 255 254 254 253 253 252 252 252 254 256 257 258 259 258 258 258 258 258 258 257 257 257 258 258 258 258 258 258 258 258 259 259 259 259 259
249 250 254 253 253 251 254 255 255 254 254 252 255 256 257 256 255 255 256 255 254 254 256 256 256 255 256 256 257 258 259 259 259 259 259 258 258 258 258 258 258 258 258 258 258 258 258 258 258 258 258 258 258 259
252 249 250 254 250 250 249 250 250 249 248 249 255 257 256 255 255 254 254 254 255 256 256 256 256 258 257 257 257 257 257 257 258 258 258 258 258 258 257 257 258 258 258 258 258 258 258 259 259 259 258 258 258 258
251 246 252 252 253 252 249 246 248 246 247 247 249 255 256 255 255 255 256 256 256 256 256 255 255 256 255 256 256 256 256 255 255 255 254 255 255 256 256 256 256 257 257 257 257 257 257 257 258 258 257 257 256 256
247 248 252 253 253 250 248 245 246 247 248 251 251 254 254 253 256 255 255 255 255 255 255 255 255 255 254 254 254 254 255 255 254 254 254 255 255 255 255 255 255 256 256 256 256 255 255 255 255 255 255 254 254 254
250 249 251 253 252 248 245 248 249 250 250 252 252 252 253 255 255 256 255 254 254 254 254 254 254 254 254 254 254 254 254 254 253 253 253 253 254 254 255 255 254 255 255 254 254 254 253 253 253 253 253 253 253 253
251 251 251 253 253 253 251 251 254 254 254 254 254 253 253 255 255 255 255 254 253 253 254 253 253 253 253 253 253 253 252 252 252 252 252 253 253 253 253 253 253 253 252 252 252 252 252 252 251 252 251 251 251 251

GFSWCAN_925_thetae_036.txt.gz
Theta_e
291 292 293 294 295 296 297 298 298 299 298 299 300 300 299 300 299 295 294 295 294 293 293 292 294 297 297 299 300 294 297 295 296 301 303 299 300 295 294 291 293 296 299 297 296 298 301 288 289 292 292 287 287 287
290 291 292 292 294 295 296 297 298 298 298 298 299 299 299 300 300 296 295 294 293 291 292 292 293 294 295 297 295 292 298 294 297 298 296 294 293 290 292 295 290 294 293 293 296 296 289 289 291 289 289 288 287 287
290 290 290 291 292 294 295 296 298 298 299 299 299 300 299 299 299 298 296 294 293 288 291 290 292 293 293 294 295 296 291 292 294 292 292 292 294 290 289 289 289 289 287 291 290 289 289 289 289 289 288 289 288 287
289 290 290 290 291 292 294 296 298 298 298 299 298 299 299 298 298 299 296 295 294 290 288 290 290 292 294 294 293 293 292 290 289 290 290 289 290 290 289 290 291 290 288 288 288 289 288 288 288 289 288 287 287 286
290 290 290 290 290 291 294 295 296 297 297 297 298 298 299 298 298 298 298 296 295 294 290 288 287 291 293 293 292 291 290 290 289 289 287 287 289 289 287 289 288 288 289 289 289 289 289 290 289 288 287 287 286 286
291 290 290 290 290 291 293 295 296 296 295 296 297 298 297 298 297 298 295 295 296 295 291 289 288 285 290 291 289 289 289 289 288 288 287 288 289 290 284 284 289 288 288 289 289 289 288 289 288 286 286 286 286 285
290 290 290 290 291 292 293 295 295 296 296 295 296 298 298 298 298 296 295 295 295 295 294 289 285 285 289 287 286 288 288 288 289 287 285 291 290 290 284 287 292 290 289 288 288 288 289 287 289 287 286 285 286 286
290 290 290 290 290 292 293 295 295 296 296 296 296 298 297 297 297 295 295 295 296 293 293 294 284 289 288 290 291 288 289 287 287 290 290 288 291 292 289 291 291 290 289 288 288 287 290 288 285 285 284 281 280 282
289 290 290 291 292 292 294 295 295 295 296 295 296 294 293 292 292 292 294 296 294 293 294 293 289 289 288 291 290 290 293 292 292 292 291 292 291 291 292 291 289 289 288 289 286 284 284 285 287 284 280 276 280 282
289 289 290 291 292 293 294 294 294 295 296 295 295 292 292 291 292 293 292 293 293 291 292 291 272 284 289 288 289 289 288 290 293 290 290 293 289 291 290 287 288 288 287 285 283 282 275 278 282 282 280 280 281 277
288 288 289 291 292 292 293 294 295 295 295 292 291 289 290 293 292 289 293 291 292 292 293 284 279 285 284 284 284 290 291 292 292 287 289 287 284 292 290 288 287 287 286 284 287 286 281 282 282 281 278 275 273 272
289 289 292 292 292 292 293 295 294 294 291 290 290 291 292 290 289 290 291 289 287 288 282 288 282 281 281 283 289 290 290 289 285 280 287 282 288 287 285 288 288 285 281 280 276 280 274 274 271 272 271 268 266 266
290 291 291 292 292 292 292 294 293 291 290 290 289 290 291 289 290 291 291 284 287 276 283 280 284 283 283 285 286 287 289 289 283 289 290 285 286 275 271 272 274 268 269 270 267 268 268 265 266 266 263 263 264 263
287 289 289 290 292 293 294 292 290 290 290 288 289 289 286 288 287 288 278 276 276 275 281 277 284 284 280 284 287 285 284 283 285 287 283 276 267 266 265 265 263 266 263 266 263 263 263 262 260 262 263 263 262 260
286 286 287 288 289 290 291 290 290 289 285 287 287 287 281 272 266 266 266 269 272 270 280 281 280 286 284 289 290 287 287 288 283 281 273 265 263 262 262 261 260 260 259 259 257 258 260 259 258 256 259 261 261 260
283 284 283 285 287 288 288 289 288 288 286 284 282 280 270 274 272 269 267 274 275 281 280 283 283 289 289 288 289 289 288 284 279 267 263 262 260 258 257 256 256 255 255 256 258 259 259 258 258 255 257 258 259 260
280 282 283 284 285 285 286 286 286 281 281 282 274 261 264 268 272 269 269 275 278 284 287 288 289 287 287 287 288 283 284 276 268 266 262 261 260 258 257 255 254 255 255 256 257 257 256 257 258 259 257 257 259 259
280 281 281 282 283 284 282 278 277 277 274 271 274 267 261 262 265 267 270 273 279 283 284 286 285 286 286 287 282 269 267 266 265 263 262 259 258 256 257 255 257 257 256 256 256 256 258 259 259 258 258 258 259 259
280 279 279 280 282 280 269 269 273 275 270 267 270 269 268 265 266 267 268 272 273 274 279 280 284 280 271 265 264 264 262 261 262 262 260 258 257 257 258 258 258 257 257 258 258 257 257 258 258 258 258 259 258 258
278 278 277 279 281 269 267 266 269 274 272 269 267 269 269 268 267 268 268 269 270 269 264 264 260 259 260 259 259 259 259 260 259 260 260 260 259 259 258 258 257 257 257 257 257 257 257 257 258 258 258 258 259 259
276 275 275 277 271 268 263 265 264 265 268 268 267 268 268 267 266 266 265 265 263 259 260 257 258 257 257 257 257 256 258 257 258 258 258 261 259 259 258 257 258 258 258 258 258 257 258 258 257 258 258 258 258 258
273 273 273 272 270 268 267 264 264 263 265 263 267 266 265 264 263 262 264 260 259 258 256 256 256 255 256 256 256 256 256 256 258 259 259 260 260 260 259 258 259 258 258 257 257 257 257 258 258 258 258 258 258 259
271 270 267 266 269 268 266 265 266 265 267 265 265 268 265 264 263 264 260 258 256 256 255 254 254 254 254 256 256 256 256 256 255 256 257 257 257 257 257 257 257 257 257 257 258 258 258 258 258 258 258 258 258 259
267 259 262 262 263 264 262 265 266 266 266 265 266 265 261 261 262 261 257 256 256 256 255 254 253 255 256 256 255 255 255 256 257 256 256 258 258 256 257 257 258 258 258 258 258 258 258 258 258 258 258 259 258 258
263 255 257 258 258 260 261 262 262 264 264 262 263 263 261 258 261 258 258 256 255 255 254 253 253 254 253 254 256 257 256 256 256 257 256 257 257 258 258 258 258 258 258 258 259 258 258 258 258 258 258 258 258 259
254 252 255 253 255 257 259 261 259 258 260 260 258 259 258 261 259 256 255 255 254 253 254 252 251 253 255 254 254 255 256 257 257 258 256 257 257 257 256 256 256 257 258 258 258 258 258 258 258 258 258 259 259 258
255 253 253 254 254 255 258 258 258 257 256 256 253 259 262 259 257 255 255 255 254 254 254 254 253 253 253 254 255 256 257 257 258 257 257 257 257 257 256 256 255 257 257 257 257 257 257 258 258 258 258 258 258 258
252 250 253 253 253 253 255 254 253 252 253 251 254 255 256 255 253 253 255 255 254 255 256 256 256 256 256 256 255 256 257 258 258 258 258 257 257 257 257 257 257 256 257 257 257 258 258 258 258 258 258 258 258 258
252 250 251 254 253 251 249 250 250 250 248 249 255 256 255 255 254 254 255 255 256 256 255 255 255 256 256 256 256 255 255 255 255 255 255 255 255 256 256 256 256 256 256 256 257 256 258 258 259 258 257 257 256 256
251 247 252 252 252 251 249 246 248 247 247 248 250 256 255 255 255 255 255 255 255 255 255 254 254 254 254 254 254 254 255 254 254 253 253 253 254 254 254 255 255 255 255 255 255 255 255 255 256 256 255 255 255 255
247 249 252 252 252 249 247 246 247 248 250 253 253 254 253 254 255 254 254 254 254 254 254 253 253 253 253 253 253 253 253 253 253 253 253 253 253 253 253 253 254 254 254 254 253 253 253 253 253 253 253 253 253 253
250 248 250 251 251 248 246 249 248 250 252 253 253 253 253 254 254 254 253 253 253 253 253 252 252 252 252 252 252 251 252 251 251 251 251 251 252 252 252 252 253 252 252 252 252 252 251 251 251 251 251 251 251 251
251 252 252 253 252 253 251 250 253 253 254 254 254 253 253 255 255 254 253 252 252 252 251 251 251 252 251 251 251 250 251 251 250 251 251 251 251 251 252 252 251 251 251 251 250 250 250 250 249 249 249 249 249 249

GFSWCAN_925_thetae_042.txt.gz
Theta_e
290 290 290 291 291 291 292 293 294 295 296 297 299 299 300 300 299 297 296 298 297 299 297 295 297 301 299 301 303 298 301 299 300 306 307 305 305 303 304 300 303 307 308 309 308 310 312 293 291 301 302 293 294 294
289 290 290 290 291 291 292 293 293 294 295 296 298 298 299 299 300 296 295 296 295 295 296 292 293 295 295 298 297 296 301 298 302 305 304 300 300 297 302 307 293 306 307 308 308 308 293 293 294 293 293 296 292 293
289 289 290 291 291 291 291 292 293 294 295 294 296 298 299 299 299 297 297 295 292 294 294 293 294 293 293 295 296 300 297 297 299 295 298 298 301 297 303 302 296 294 291 297 301 294 292 292 291 291 290 292 291 291
289 290 290 290 291 291 291 291 292 293 293 294 295 297 298 298 299 298 296 294 293 292 295 294 290 292 292 293 295 295 294 292 293 295 298 299 301 294 299 296 298 294 292 293 291 290 290 291 291 291 291 290 289 288
289 289 290 290 291 291 291 291 291 292 292 293 294 296 298 298 299 298 297 296 295 297 296 293 287 289 291 292 292 293 294 294 294 296 296 298 293 293 291 291 294 291 291 294 296 292 293 293 293 291 291 290 290 289
289 289 290 290 291 291 291 291 291 291 292 292 294 295 296 298 298 297 294 294 295 295 296 296 287 288 289 290 290 291 291 292 293 295 293 291 289 294 296 296 292 290 290 291 292 291 291 291 291 290 291 290 289 289
289 289 289 289 290 290 291 291 291 291 291 292 294 295 294 298 298 294 297 295 295 295 295 294 292 289 288 288 289 290 290 291 293 291 292 292 291 292 292 295 290 290 290 289 290 289 290 289 291 289 288 288 287 286
288 288 288 288 289 289 291 291 292 291 292 292 294 295 296 298 298 296 296 296 295 294 294 291 290 290 289 292 292 289 291 291 291 292 291 292 292 292 294 291 290 290 289 289 289 289 291 289 288 287 285 284 284 285
287 287 288 288 288 288 290 290 291 291 291 292 293 296 297 297 293 293 296 295 295 295 296 291 291 293 290 291 292 292 291 293 291 292 292 292 292 293 293 291 290 290 290 291 289 287 285 286 287 285 284 281 285 286
286 287 288 288 288 289 290 290 291 291 292 293 294 292 294 291 294 296 293 293 293 293 294 292 284 291 291 292 291 293 291 293 294 292 291 294 293 292 290 290 288 289 289 286 286 286 281 284 286 285 284 285 286 286
288 288 288 287 290 291 289 290 291 291 292 294 293 292 291 294 292 293 294 296 293 294 292 285 285 290 289 292 292 290 293 293 293 292 294 293 293 288 275 277 275 275 275 279 282 285 285 287 287 286 283 282 282 281
287 288 288 292 291 292 289 290 291 291 293 291 291 291 291 291 291 292 293 292 293 293 285 286 285 288 288 289 293 292 293 291 292 288 293 292 288 273 269 268 268 268 267 270 271 275 277 278 275 277 275 275 272 271
287 287 287 292 292 291 290 291 292 293 291 291 292 292 292 291 291 292 291 289 291 284 285 286 289 288 287 290 291 292 292 292 286 291 291 288 273 269 265 264 264 264 264 266 267 268 268 267 266 267 266 265 266 265
286 286 286 287 290 291 291 292 293 291 291 290 291 290 291 290 291 289 288 288 284 284 287 289 287 290 288 290 290 291 287 288 291 291 289 275 268 263 262 261 260 260 260 262 262 263 263 262 261 261 262 263 264 262
285 284 285 286 286 289 292 293 291 289 288 288 288 289 288 275 272 270 268 277 277 285 287 287 287 289 288 291 290 286 287 289 289 288 277 268 264 262 261 259 258 258 258 259 259 260 260 259 259 258 260 261 261 261
281 282 283 284 286 285 287 289 287 286 279 281 276 281 274 282 279 277 277 280 276 282 283 286 287 290 290 290 289 289 288 287 283 271 267 265 262 260 259 258 257 257 256 257 257 258 259 258 257 256 258 260 260 261
279 280 282 283 284 285 285 283 280 275 276 277 273 267 269 275 275 273 272 277 278 284 286 284 284 287 288 288 284 275 282 271 268 266 264 262 261 259 258 258 256 256 256 256 256 256 256 256 257 259 258 257 260 260
278 279 281 282 282 283 279 275 276 274 272 271 273 268 269 268 272 271 271 273 281 281 280 283 284 283 280 280 275 268 265 265 264 264 262 261 259 257 256 256 256 256 256 256 257 258 258 258 258 257 257 258 259 259
279 279 280 280 280 277 275 271 271 271 268 269 270 269 268 269 268 267 267 269 270 268 272 272 265 265 264 262 262 262 261 261 261 261 261 259 258 257 257 257 257 257 257 257 258 257 257 259 259 259 259 260 260 259
277 277 278 279 280 273 272 268 268 271 270 268 268 269 268 268 267 266 263 265 264 263 259 259 258 257 258 258 258 259 259 259 259 261 262 261 259 258 257 257 258 257 258 258 258 259 259 258 258 258 259 259 260 259
276 275 275 276 270 265 264 266 266 267 268 268 268 269 269 266 264 263 262 261 260 258 258 257 257 257 256 256 257 256 257 257 258 258 259 260 259 258 258 258 258 258 259 259 260 259 259 258 257 258 258 258 259 259
271 272 271 271 267 264 265 265 267 265 266 265 267 266 265 265 263 261 261 258 257 256 256 255 255 255 256 256 256 256 255 256 256 257 258 258 259 259 258 257 259 258 258 258 258 259 258 257 258 258 258 258 258 259
269 268 265 263 265 264 265 266 265 264 269 267 267 266 264 263 263 262 259 258 257 257 255 255 254 254 255 256 256 255 255 256 256 256 256 256 256 257 257 257 258 258 259 257 257 257 257 258 258 258 258 258 258 259
265 257 259 259 260 263 264 264 265 264 265 265 265 263 261 261 262 259 257 256 256 256 255 254 255 257 257 257 256 255 254 256 256 256 256 257 257 256 256 256 256 256 256 256 257 257 257 257 258 258 258 258 258 258
260 254 256 255 257 260 262 262 261 261 261 260 262 262 261 261 259 257 257 256 255 255 255 254 254 255 255 255 255 255 255 255 255 256 255 256 257 257 256 256 256 255 256 257 256 256 256 257 257 257 257 257 257 257
252 252 254 253 255 257 257 259 257 258 260 259 257 258 259 258 256 255 254 254 254 254 254 254 253 254 255 255 255 255 255 255 256 255 255 256 256 255 255 255 255 255 255 255 255 256 256 256 256 256 257 257 257 256
253 252 253 254 253 254 255 255 254 253 252 253 253 257 257 254 253 253 254 255 255 254 254 254 254 254 254 255 254 255 255 256 256 256 255 255 255 255 254 253 254 255 255 255 255 255 255 255 256 256 256 256 256 256
252 251 252 253 252 251 252 252 251 251 252 251 254 253 251 251 252 253 255 255 255 255 254 254 254 254 253 253 253 254 255 256 256 256 256 255 255 254 254 253 253 254 254 254 254 254 254 255 255 255 254 254 254 254
252 251 252 253 252 251 249 250 250 250 249 249 253 254 253 253 252 253 254 254 254 254 253 252 252 252 252 252 252 252 252 253 252 248 247 249 250 253 252 252 252 252 252 252 252 253 254 254 254 253 253 252 252 252
251 248 252 251 251 251 250 247 250 249 248 249 252 254 253 253 253 253 253 253 253 252 252 251 251 250 250 249 249 251 251 251 250 250 246 247 249 250 250 251 251 251 251 251 251 251 251 251 251 251 251 251 251 250
248 247 250 251 251 250 249 249 249 252 254 254 254 253 252 252 252 252 252 252 252 252 252 251 251 250 249 249 248 248 248 250 250 250 250 250 250 250 250 250 251 250 251 250 250 250 250 250 249 249 249 249 249 249
251 249 252 253 252 251 250 249 249 252 252 251 252 250 250 252 251 252 252 252 251 251 251 251 250 250 250 250 250 249 249 249 249 250 250 250 250 250 250 250 251 250 250 250 250 249 249 248 248 247 247 247 247 247
250 251 250 252 252 252 251 251 253 253 252 252 252 250 250 251 252 252 253 252 252 251 252 251 251 250 251 251 250 250 250 249 249 250 250 250 249 250 251 251 250 250 249 249 249 248 248 248 247 247 247 247 246 246

GFSWCAN_925_thetae_045.txt.gz
Theta_e
291 291 291 291 291 291 291 292 292 294 295 294 296 296 299 299 301 300 298 299 299 300 301 297 299 301 300 301 303 299 302 299 302 308 312 310 314 308 309 307 307 309 310 312 313 314 316 297 295 307 304 297 301 304
290 290 290 290 290 291 291 291 292 293 294 295 295 296 297 299 300 299 297 297 297 298 298 294 295 296 296 297 299 297 301 301 303 307 307 305 305 303 308 312 298 309 311 313 312 312 295 295 296 297 297 301 295 298
289 290 290 290 290 290 291 291 292 292 293 294 295 295 297 298 300 298 298 296 294 297 297 295 296 294 295 295 296 301 299 298 300 297 303 303 305 303 307 307 301 298 296 305 305 298 296 294 296 293 293 294 293 293
289 289 289 290 290 291 291 291 291 292 292 293 295 295 296 297 297 298 297 296 296 297 301 297 291 293 292 294 295 295 295 294 295 297 301 302 305 297 303 299 301 296 296 299 295 292 293 295 294 295 294 291 290 290
289 289 289 290 290 290 291 291 292 292 292 292 294 295 294 296 297 299 297 296 296 299 300 297 290 290 291 293 293 295 295 297 298 299 300 301 296 295 293 293 298 293 294 297 300 293 299 296 296 295 293 291 290 290
288 288 289 289 290 290 291 291 291 292 292 292 293 294 294 295 296 297 294 295 296 296 297 298 291 290 291 292 293 296 295 295 296 298 296 294 291 297 300 302 295 293 292 294 294 294 294 295 296 294 292 291 291 290
288 288 288 289 289 290 290 290 291 291 292 292 292 293 294 295 296 294 297 296 295 295 298 295 295 290 290 291 291 292 292 293 295 294 296 293 292 296 296 298 294 292 292 291 291 291 291 290 292 291 290 290 290 288
287 287 288 288 288 289 289 289 290 291 292 292 292 292 293 294 295 295 295 295 295 294 295 298 292 292 290 294 293 291 293 294 294 294 293 294 293 294 296 293 292 291 291 290 290 290 291 290 289 288 287 286 285 286
287 286 287 287 287 288 289 289 289 290 291 292 292 292 293 294 293 295 296 296 295 296 298 295 294 295 291 293 293 293 293 295 292 295 294 295 294 296 294 292 291 291 291 292 290 288 286 288 289 287 286 284 285 287
286 286 287 288 288 288 289 289 290 291 291 292 292 292 294 292 294 296 296 296 293 294 296 297 294 293 293 294 295 294 295 295 294 294 292 295 295 286 282 280 280 279 279 284 288 289 286 286 287 286 286 286 286 286
286 287 288 288 289 288 289 289 289 290 291 292 293 294 292 293 293 294 295 297 296 296 295 290 293 292 291 295 294 293 295 294 295 295 295 295 295 283 275 275 273 273 273 275 276 279 282 284 287 287 285 284 282 281
287 287 288 288 288 292 292 292 292 290 291 292 292 291 290 294 294 295 296 295 296 295 288 292 292 292 291 293 295 293 295 294 295 292 296 295 287 272 270 269 268 268 267 269 271 272 273 274 272 275 276 276 273 272
286 286 287 287 289 292 292 293 291 290 291 291 292 293 294 293 293 294 293 292 292 290 289 290 292 290 290 292 294 294 294 294 291 294 294 291 275 270 266 265 265 264 264 266 267 268 268 267 266 266 268 267 267 267
285 285 286 286 287 290 291 290 290 291 291 293 292 292 293 293 293 293 294 294 290 291 290 292 291 293 292 293 293 294 290 290 293 293 293 279 270 265 264 263 262 262 261 263 264 264 264 264 263 262 263 264 265 264
284 284 284 285 286 289 291 291 292 290 289 291 291 291 291 280 278 277 277 284 283 291 292 291 292 291 292 292 291 288 289 291 292 291 280 271 265 263 263 261 260 260 260 261 261 262 261 261 261 260 260 261 262 262
281 282 282 284 285 285 290 290 288 284 278 280 277 284 279 284 281 282 284 284 283 289 291 292 292 293 292 292 291 291 291 291 285 273 269 267 263 261 260 259 259 258 259 259 259 260 259 258 259 258 259 260 260 261
279 280 281 282 283 284 286 282 278 275 276 278 275 272 273 278 278 276 279 280 280 289 290 290 291 291 291 290 285 274 278 272 270 267 265 262 261 260 258 259 257 258 258 258 258 258 258 259 260 261 260 259 260 260
279 279 280 280 281 283 277 274 276 276 273 273 275 271 271 270 274 272 272 273 282 286 287 285 284 281 278 283 275 268 266 266 265 265 263 262 261 259 259 259 258 258 258 258 258 259 259 261 261 260 259 260 261 261
279 279 279 278 280 277 276 272 273 273 271 271 272 272 271 269 267 266 267 269 268 267 271 270 266 267 265 263 264 263 262 262 263 263 262 260 259 258 259 258 259 258 258 258 260 260 259 259 260 261 261 262 262 261
277 277 277 276 278 277 274 271 272 273 272 270 271 271 269 268 267 265 263 264 264 263 260 260 259 258 259 259 259 260 260 260 261 264 264 262 261 260 259 259 259 259 260 260 260 261 261 261 260 260 260 261 262 261
275 275 274 274 269 268 268 270 270 270 271 270 269 271 269 267 264 264 262 262 260 258 259 258 258 257 257 258 258 258 259 258 260 260 260 262 260 260 260 260 260 260 261 261 261 261 260 259 258 258 259 259 258 258
270 271 270 269 270 269 269 268 269 268 270 269 269 267 266 265 263 261 261 259 258 257 256 256 256 256 257 257 257 256 256 257 257 259 259 259 260 260 259 259 260 260 259 259 259 259 259 258 257 258 258 258 258 258
268 267 265 264 268 268 267 268 269 269 271 270 268 267 265 264 263 262 259 258 257 257 256 256 255 256 257 257 257 256 256 258 258 258 258 258 258 258 258 257 257 258 259 258 257 258 258 257 257 257 257 258 258 258
263 258 260 260 262 264 266 265 266 267 267 267 266 264 262 263 262 260 257 257 257 256 256 255 256 259 258 258 257 256 255 257 258 257 256 259 258 257 256 256 256 255 255 256 257 257 257 257 257 257 257 257 257 257
260 254 257 256 258 261 263 262 261 264 263 264 264 263 262 262 260 258 257 256 256 256 256 256 256 256 257 257 257 257 255 255 257 256 255 257 258 258 257 256 255 255 255 255 255 255 256 256 256 256 256 256 256 257
253 254 255 254 256 257 258 259 258 259 261 260 260 261 260 259 257 256 256 255 255 255 255 255 255 256 256 256 256 256 255 255 256 256 254 255 255 256 256 256 256 255 254 254 254 254 254 255 255 255 255 256 256 255
254 253 255 255 254 255 256 255 255 255 254 255 255 258 258 256 255 255 256 256 256 255 254 254 255 255 255 254 254 254 254 255 256 255 254 254 254 253 253 253 253 253 253 253 253 253 254 254 254 255 254 254 254 254
253 252 252 254 253 252 252 252 251 251 252 252 254 253 253 254 254 255 255 255 255 254 254 253 252 252 252 252 252 253 254 255 255 255 254 254 253 253 253 252 252 252 252 252 252 252 253 253 253 254 253 252 252 252
254 252 253 253 253 252 251 252 252 251 251 250 254 253 253 253 253 254 254 254 253 253 252 251 251 251 252 252 251 251 251 252 252 249 249 251 251 252 251 251 251 251 251 251 251 251 252 252 253 252 251 251 251 251
252 251 253 252 252 253 253 250 252 251 250 251 254 254 253 253 252 252 253 253 252 251 251 251 250 250 249 249 249 250 250 250 250 249 248 249 249 250 250 250 250 251 250 250 250 250 250 250 250 250 250 249 249 249
251 253 253 253 254 253 252 251 253 254 254 254 253 253 252 252 252 252 252 252 252 251 252 251 251 250 249 249 248 248 249 250 250 249 249 249 250 250 250 250 250 250 250 250 250 249 249 249 248 248 248 247 248 247
251 249 252 254 254 253 252 252 253 254 253 253 253 251 251 251 250 252 252 252 252 251 251 251 251 250 250 250 250 249 249 250 250 249 249 250 250 250 250 250 250 250 250 249 249 249 248 248 247 247 246 246 247 246
250 251 250 250 251 251 249 250 252 252 251 250 251 249 249 251 251 252 253 253 252 252 252 251 251 251 250 250 250 250 250 250 249 249 249 250 249 249 250 250 250 250 250 249 249 248 248 248 247 247 247 246 246 246

GFSWCAN_925_thetae_048.txt.gz
Theta_e
291 291 292 292 292 292 292 292 292 292 292 293 295 296 296 296 295 300 300 300 299 298 300 298 300 302 301 302 309 300 303 301 301 308 312 312 314 309 310 308 305 309 310 310 312 316 317 297 297 308 302 295 300 300
291 291 291 291 291 291 291 291 292 292 292 292 293 295 296 296 293 297 298 299 299 297 299 296 297 297 298 299 300 298 302 301 304 307 306 307 306 304 309 310 300 311 309 311 311 312 295 293 295 296 296 297 297 301
290 290 290 290 291 291 291 291 291 292 292 292 293 294 295 296 295 294 299 297 296 294 296 295 294 295 295 296 297 300 297 298 298 297 302 304 306 304 307 307 301 299 297 305 305 300 297 295 298 293 293 293 293 294
289 289 289 290 290 290 290 291 291 291 292 292 292 293 294 295 296 295 297 296 297 296 299 295 291 293 294 295 295 296 296 294 294 296 301 302 304 298 303 300 301 297 298 299 295 293 295 295 295 296 295 291 291 290
289 289 289 289 289 290 290 291 291 292 292 292 292 293 293 295 295 295 297 295 297 297 298 294 290 291 292 293 294 295 295 295 297 298 300 301 297 297 294 295 299 292 296 300 302 295 299 298 297 296 296 293 290 289
288 289 289 289 289 290 290 290 291 291 292 292 292 292 293 295 295 295 294 294 296 298 295 294 290 290 292 293 294 296 295 295 296 299 297 295 292 296 300 301 295 293 292 294 295 293 296 296 296 295 294 290 289 288
288 288 288 288 289 289 290 290 290 291 291 292 292 292 293 294 295 294 295 295 295 296 296 293 292 290 291 290 289 292 292 294 296 295 296 293 291 296 297 297 295 291 291 291 292 291 291 290 291 291 291 289 288 287
287 288 288 288 288 289 289 289 290 290 290 291 292 292 292 293 294 294 294 295 294 293 294 297 292 292 289 293 290 290 292 292 294 294 291 293 292 295 295 295 291 290 290 289 289 288 289 288 287 286 284 284 283 285
287 287 287 287 287 288 288 288 289 289 290 290 291 292 292 292 292 293 294 295 294 294 297 291 290 294 290 293 290 290 292 292 291 292 293 292 291 292 289 290 286 282 286 287 287 285 284 286 286 284 283 281 283 284
286 287 287 287 287 287 288 289 289 289 290 291 291 292 292 292 292 294 295 295 294 294 295 296 288 291 293 293 293 291 290 288 286 289 291 287 285 283 279 277 276 276 276 277 286 286 283 283 284 284 283 282 282 282
286 286 287 287 288 288 289 289 289 289 289 290 291 292 292 293 293 294 295 296 295 296 295 292 287 291 291 290 290 291 287 287 291 287 287 284 284 281 274 273 272 271 271 272 273 275 276 277 279 280 280 276 275 276
286 286 286 287 287 288 289 289 290 290 290 290 291 291 292 292 295 294 296 297 296 294 289 288 289 288 288 290 288 287 288 291 288 286 286 286 281 271 269 268 267 266 265 267 268 269 270 269 268 270 269 268 268 269
286 286 286 286 287 288 289 291 292 292 290 289 291 292 293 292 295 295 294 293 291 289 289 287 290 288 287 290 288 292 286 287 289 286 286 278 273 267 265 264 263 262 263 264 264 265 265 264 263 263 264 265 266 265
285 285 285 285 286 287 289 291 293 292 290 290 289 292 292 292 293 292 293 292 288 289 289 291 291 291 287 287 291 292 290 286 289 285 284 271 265 261 262 261 258 260 259 261 261 262 262 262 260 260 261 263 264 262
284 284 283 283 285 286 288 292 292 290 288 291 292 292 290 281 278 275 277 284 286 291 292 291 291 290 289 292 290 289 289 290 286 283 271 266 262 261 260 259 257 258 258 258 259 259 259 260 259 258 260 261 262 262
281 282 281 282 284 284 288 290 288 283 277 280 275 283 280 283 282 281 284 287 288 291 290 291 292 292 292 291 290 290 290 284 274 265 265 264 260 258 257 257 257 257 257 258 258 258 258 259 259 259 260 260 261 261
279 279 280 281 283 282 282 282 278 276 276 277 274 272 273 277 275 273 275 275 276 287 286 292 292 291 291 288 279 270 270 267 266 264 262 261 259 257 256 256 256 257 257 258 258 259 259 260 261 260 258 259 260 260
279 279 280 280 281 282 276 275 276 275 273 273 272 272 268 266 270 269 268 269 274 284 281 280 279 275 272 278 270 266 266 265 264 262 261 260 258 258 258 256 258 258 258 260 260 260 261 261 260 260 261 261 261 261
279 278 278 278 278 277 275 272 273 272 271 271 272 272 269 267 266 264 265 266 266 265 268 266 263 264 262 261 262 261 261 261 262 263 261 259 258 258 259 259 259 259 259 259 259 259 259 260 260 261 261 261 261 261
277 277 276 275 277 277 273 271 273 273 271 271 271 269 268 266 265 264 262 263 263 261 258 258 257 257 258 258 258 259 260 260 260 263 262 261 260 259 259 259 259 261 261 261 260 261 261 259 259 259 260 260 260 259
275 274 274 274 270 269 269 271 270 271 272 270 270 270 268 266 263 262 261 260 259 258 257 256 256 256 257 257 257 257 258 258 259 260 260 261 260 260 259 260 260 260 259 259 259 259 258 258 258 258 259 259 259 259
269 270 269 270 271 270 269 268 270 269 270 270 269 267 266 264 262 260 261 258 257 256 256 256 255 254 256 255 256 256 257 258 259 259 259 259 258 257 257 258 259 257 257 257 258 258 257 257 258 258 258 258 259 259
266 266 264 263 267 267 267 269 270 269 271 269 268 266 264 262 262 261 259 257 257 256 256 255 256 256 257 257 256 256 257 258 257 257 258 258 257 257 256 255 256 256 255 256 257 257 257 257 257 257 257 258 258 258
263 257 259 259 260 261 266 265 266 267 267 266 265 263 262 262 262 259 256 256 256 256 256 256 257 258 258 257 257 256 255 257 257 256 257 257 256 255 255 255 255 255 255 255 256 256 256 256 256 256 256 256 257 257
257 252 254 253 257 259 262 261 262 265 263 264 264 262 261 261 259 257 256 255 255 255 255 255 257 256 256 256 256 256 255 256 256 254 254 256 257 257 256 255 254 254 254 254 254 254 254 255 255 255 255 255 255 255
252 254 253 253 254 256 257 257 257 258 260 260 260 261 260 259 257 255 255 254 254 255 254 254 255 255 255 254 254 254 254 255 256 254 253 255 255 254 253 251 252 253 253 253 253 253 253 253 253 254 254 254 254 254
252 252 255 255 253 254 254 254 254 254 253 254 255 258 258 256 255 254 255 255 255 254 254 253 253 253 253 252 253 253 253 254 255 254 254 254 254 253 253 252 251 251 251 252 252 252 252 252 252 253 253 253 253 252
254 252 252 254 252 251 250 251 250 250 251 251 254 253 253 253 253 253 255 255 254 253 252 252 251 251 251 251 252 253 254 254 254 254 254 253 252 252 252 252 251 251 251 251 251 251 251 251 252 252 252 251 251 251
254 252 253 252 252 251 250 251 251 251 250 247 250 251 251 252 252 254 253 253 253 253 252 251 251 251 251 251 251 251 251 252 253 246 245 245 249 252 251 251 251 251 251 251 251 251 251 251 252 251 250 250 250 249
252 252 252 252 251 251 252 250 250 250 250 250 252 253 252 251 252 252 253 253 252 251 251 250 250 250 250 250 250 251 250 250 250 250 244 244 248 250 250 250 250 250 250 250 250 250 250 250 250 250 249 249 249 248
249 251 251 252 252 250 250 251 253 253 247 247 247 247 247 248 252 252 252 252 252 251 251 251 251 250 250 249 249 248 249 250 250 249 249 249 249 250 250 250 250 250 250 250 250 249 249 249 249 248 248 248 248 248
247 245 249 251 251 249 247 246 246 247 247 246 247 244 245 245 246 250 253 253 252 252 252 251 251 251 250 250 250 250 250 250 250 250 249 249 250 250 250 250 250 250 250 250 250 249 249 248 248 247 247 247 247 247
245 245 244 245 247 247 244 245 246 247 245 244 245 243 243 246 250 251 253 253 253 253 253 252 252 251 251 251 251 250 250 250 250 249 249 249 249 249 249 250 250 250 250 250 250 249 249 248 248 247 247 247 247 247